Time,TemperatureF,DewpointF,PressureIn,WindDirection,WindDirectionDegrees,WindSpeedMPH,WindSpeedGustMPH,Humidity,HourlyPrecipIn,Conditions,Clouds,dailyrainin,SoftwareType,DateUTC
2013-03-17 00:00:00,59.4,31.7,30.03,North,356,0.0,0.0,35,-99.99,,CLR,-99.99,VWS V14.01,2013-03-17 04:00:00,
2013-03-17 00:01:00,59.4,31.7,30.03,North,356,0.0,0.0,35,-99.99,,CLR,-99.99,VWS V14.01,2013-03-17 04:01:00,
2013-03-17 00:05:00,59.2,31.6,30.03,North,356,0.0,0.0,35,-99.99,,CLR,-99.99,VWS V14.01,2013-03-17 04:05:00,
2013-03-17 00:06:00,59.2,31.6,30.03,North,356,3.1,4.0,35,-99.99,,CLR,-99.99,VWS V14.01,2013-03-17 04:06:00,
2013-03-17 00:07:00,59.2,31.6,30.03,North,356,0.0,3.1,35,-99.99,,CLR,-99.99,VWS V14.01,2013-03-17 04:07:00,
2013-03-17 00:11:00,59.2,31.6,30.03,North,356,0.0,0.0,35,-99.99,,CLR,-99.99,VWS V14.01,2013-03-17 04:11:00,
2013-03-17 00:12:00,59.0,31.4,30.03,North,356,0.0,0.0,35,-99.99,,CLR,-99.99,VWS V14.01,2013-03-17 04:12:00,
2013-03-17 00:13:00,59.0,31.4,30.03,North,356,0.0,0.0,35,-99.99,,CLR,-99.99,VWS V14.01,2013-03-17 04:13:00,
2013-03-17 00:16:00,58.8,31.2,30.03,North,356,0.0,0.0,35,-99.99,,CLR,-99.99,VWS V14.01,2013-03-17 04:16:00,
2013-03-17 00:17:00,58.8,31.2,30.03,North,356,0.0,0.0,35,-99.99,,CLR,-99.99,VWS V14.01,2013-03-17 04:17:00,
2013-03-17 00:18:00,58.8,31.2,30.03,North,356,0.0,0.0,35,-99.99,,CLR,-99.99,VWS V14.01,2013-03-17 04:18:00,
2013-03-17 00:19:00,58.8,31.2,30.03,North,356,0.0,0.0,35,-99.99,,CLR,-99.99,VWS V14.01,2013-03-17 04:19:00,
2013-03-17 00:22:00,58.8,31.2,30.03,North,356,0.0,2.7,35,-99.99,,CLR,-99.99,VWS V14.01,2013-03-17 04:22:00,
2013-03-17 00:23:00,58.8,31.2,30.03,North,356,0.0,0.0,35,-99.99,,CLR,-99.99,VWS V14.01,2013-03-17 04:23:00,
2013-03-17 00:24:00,58.6,31.1,30.03,North,356,0.0,0.0,35,-99.99,,CLR,-99.99,VWS V14.01,2013-03-17 04:24:00,
2013-03-17 00:27:00,58.6,31.8,30.03,North,356,0.0,0.0,36,-99.99,,CLR,-99.99,VWS V14.01,2013-03-17 04:27:00,
2013-03-17 00:28:00,58.6,31.8,30.03,North,356,0.0,0.0,36,-99.99,,CLR,-99.99,VWS V14.01,2013-03-17 04:28:00,
2013-03-17 00:29:00,58.6,31.8,30.03,North,356,0.0,0.0,36,-99.99,,CLR,-99.99,VWS V14.01,2013-03-17 04:29:00,
2013-03-17 00:32:00,58.3,31.5,30.03,North,356,0.0,0.0,36,-99.99,,CLR,-99.99,VWS V14.01,2013-03-17 04:32:00,
2013-03-17 00:34:00,58.3,31.5,30.03,North,356,3.1,3.1,36,-99.99,,CLR,-99.99,VWS V14.01,2013-03-17 04:34:00,
2013-03-17 00:35:00,58.3,31.5,30.03,North,356,0.0,0.0,36,-99.99,,CLR,-99.99,VWS V14.01,2013-03-17 04:35:00,
2013-03-17 00:38:00,58.1,31.3,30.03,North,356,0.0,0.0,36,-99.99,,CLR,-99.99,VWS V14.01,2013-03-17 04:38:00,
2013-03-17 00:40:00,58.1,32.0,30.03,North,356,0.0,2.7,37,-99.99,,CLR,-99.99,VWS V14.01,2013-03-17 04:40:00,
2013-03-17 00:42:00,57.9,31.8,30.03,North,356,0.0,0.0,37,-99.99,,CLR,-99.99,VWS V14.01,2013-03-17 04:42:00,
2013-03-17 00:43:00,57.9,31.8,30.03,North,356,0.0,0.0,37,-99.99,,CLR,-99.99,VWS V14.01,2013-03-17 04:43:00,
2013-03-17 00:45:00,57.9,31.8,30.03,North,356,0.0,0.0,37,-99.99,,CLR,-99.99,VWS V14.01,2013-03-17 04:45:00,
2013-03-17 00:46:00,57.9,31.8,30.03,North,356,0.0,0.0,37,-99.99,,CLR,-99.99,VWS V14.01,2013-03-17 04:46:00,
2013-03-17 00:47:00,57.9,31.8,30.03,North,356,0.0,0.0,37,-99.99,,CLR,-99.99,VWS V14.01,2013-03-17 04:47:00,
2013-03-17 00:48:00,57.9,31.8,30.03,North,356,0.0,0.0,37,-99.99,,CLR,-99.99,VWS V14.01,2013-03-17 04:48:00,
2013-03-17 00:50:00,57.7,31.7,30.03,North,356,0.0,0.0,37,-99.99,,CLR,-99.99,VWS V14.01,2013-03-17 04:50:00,
2013-03-17 00:51:00,57.7,31.7,30.03,North,356,0.0,0.0,37,-99.99,,CLR,-99.99,VWS V14.01,2013-03-17 04:51:00,
2013-03-17 00:52:00,57.7,31.7,30.03,North,356,0.0,0.0,37,-99.99,,CLR,-99.99,VWS V14.01,2013-03-17 04:52:00,
2013-03-17 00:54:00,57.6,31.5,30.03,North,356,0.0,0.0,37,-99.99,,CLR,-99.99,VWS V14.01,2013-03-17 04:54:00,
2013-03-17 00:55:00,57.6,31.5,30.03,North,356,0.0,0.0,37,-99.99,,CLR,-99.99,VWS V14.01,2013-03-17 04:55:00,
2013-03-17 00:58:00,57.6,32.2,30.03,North,356,0.0,0.0,38,-99.99,,CLR,-99.99,VWS V14.01,2013-03-17 04:58:00,
2013-03-17 00:59:00,57.6,32.2,30.03,North,356,0.0,0.0,38,-99.99,,CLR,-99.99,VWS V14.01,2013-03-17 04:59:00,
2013-03-17 01:03:00,57.6,32.2,30.03,North,356,0.0,0.0,38,-99.99,,CLR,-99.99,VWS V14.01,2013-03-17 05:03:00,
2013-03-17 01:04:00,57.6,32.2,30.03,North,356,0.0,0.0,38,-99.99,,CLR,-99.99,VWS V14.01,2013-03-17 05:04:00,
2013-03-17 01:08:00,57.4,32.0,30.03,North,356,0.0,0.0,38,-99.99,,CLR,-99.99,VWS V14.01,2013-03-17 05:08:00,
2013-03-17 01:10:00,57.2,31.8,30.03,North,356,0.0,0.0,38,-99.99,,CLR,-99.99,VWS V14.01,2013-03-17 05:10:00,
2013-03-17 01:14:00,57.0,31.7,30.03,North,356,0.0,0.0,38,-99.99,,CLR,-99.99,VWS V14.01,2013-03-17 05:14:00,
2013-03-17 01:15:00,56.8,31.5,30.03,North,356,0.0,0.0,38,-99.99,,CLR,-99.99,VWS V14.01,2013-03-17 05:15:00,
2013-03-17 01:16:00,56.8,31.5,30.03,North,356,0.0,0.0,38,-99.99,,CLR,-99.99,VWS V14.01,2013-03-17 05:16:00,
2013-03-17 01:17:00,56.8,32.2,30.03,North,356,0.0,0.0,39,-99.99,,CLR,-99.99,VWS V14.01,2013-03-17 05:17:00,
2013-03-17 01:19:00,56.7,32.0,30.03,North,356,0.0,0.0,39,-99.99,,CLR,-99.99,VWS V14.01,2013-03-17 05:19:00,
2013-03-17 01:21:00,56.7,32.0,30.03,North,356,0.0,0.0,39,-99.99,,CLR,-99.99,VWS V14.01,2013-03-17 05:21:00,
2013-03-17 01:22:00,56.7,32.0,30.03,North,356,0.0,0.0,39,-99.99,,CLR,-99.99,VWS V14.01,2013-03-17 05:22:00,
2013-03-17 01:25:00,56.5,31.8,30.03,North,356,0.0,0.0,39,-99.99,,CLR,-99.99,VWS V14.01,2013-03-17 05:25:00,
2013-03-17 01:27:00,56.3,32.3,30.03,North,356,0.0,0.0,40,-99.99,,CLR,-99.99,VWS V14.01,2013-03-17 05:27:00,
2013-03-17 01:30:00,55.9,32.6,30.03,North,356,0.0,0.0,41,-99.99,,CLR,-99.99,VWS V14.01,2013-03-17 05:30:00,
2013-03-17 01:32:00,55.9,33.2,30.03,North,356,0.0,0.0,42,-99.99,,CLR,-99.99,VWS V14.01,2013-03-17 05:32:00,
2013-03-17 01:33:00,55.8,33.0,30.03,North,356,0.0,0.0,42,-99.99,,CLR,-99.99,VWS V14.01,2013-03-17 05:33:00,
2013-03-17 01:35:00,55.8,33.0,30.03,North,356,0.0,0.0,42,-99.99,,CLR,-99.99,VWS V14.01,2013-03-17 05:35:00,
2013-03-17 01:38:00,55.6,33.5,30.03,North,356,0.0,0.0,43,-99.99,,CLR,-99.99,VWS V14.01,2013-03-17 05:38:00,
2013-03-17 01:39:00,55.6,33.5,30.03,North,356,0.0,0.0,43,-99.99,,CLR,-99.99,VWS V14.01,2013-03-17 05:39:00,
2013-03-17 01:41:00,55.4,33.3,30.03,North,356,0.0,0.0,43,-99.99,,CLR,-99.99,VWS V14.01,2013-03-17 05:41:00,
2013-03-17 01:43:00,55.2,33.7,30.03,North,356,0.0,0.0,44,-99.99,,CLR,-99.99,VWS V14.01,2013-03-17 05:43:00,
2013-03-17 01:44:00,55.2,33.7,30.03,North,356,0.0,0.0,44,-99.99,,CLR,-99.99,VWS V14.01,2013-03-17 05:44:00,
2013-03-17 01:47:00,55.0,34.1,30.03,North,356,0.0,0.0,45,-99.99,,CLR,-99.99,VWS V14.01,2013-03-17 05:47:00,
2013-03-17 01:48:00,55.0,33.5,30.03,North,356,0.0,0.0,44,-99.99,,CLR,-99.99,VWS V14.01,2013-03-17 05:48:00,
2013-03-17 01:49:00,54.9,33.9,30.03,North,356,0.0,0.0,45,-99.99,,CLR,-99.99,VWS V14.01,2013-03-17 05:49:00,
2013-03-17 01:50:00,54.9,33.9,30.03,North,356,0.0,0.0,45,-99.99,,CLR,-99.99,VWS V14.01,2013-03-17 05:50:00,
2013-03-17 01:52:00,54.7,33.8,30.03,North,356,0.0,0.0,45,-99.99,,CLR,-99.99,VWS V14.01,2013-03-17 05:52:00,
2013-03-17 01:54:00,54.5,33.6,30.03,North,356,0.0,0.0,45,-99.99,,CLR,-99.99,VWS V14.01,2013-03-17 05:54:00,
2013-03-17 01:55:00,54.5,33.6,30.03,North,356,0.0,0.0,45,-99.99,,CLR,-99.99,VWS V14.01,2013-03-17 05:55:00,
2013-03-17 01:59:00,54.3,33.5,30.03,North,356,0.0,0.0,45,-99.99,,CLR,-99.99,VWS V14.01,2013-03-17 05:59:00,
2013-03-17 02:01:00,54.1,33.8,30.03,North,356,0.0,0.0,46,-99.99,,CLR,-99.99,VWS V14.01,2013-03-17 06:01:00,
2013-03-17 02:05:00,54.0,33.7,30.03,North,356,0.0,0.0,46,-99.99,,CLR,-99.99,VWS V14.01,2013-03-17 06:05:00,
2013-03-17 02:06:00,53.8,34.0,30.06,North,356,0.0,0.0,47,-99.99,,CLR,-99.99,VWS V14.01,2013-03-17 06:06:00,
2013-03-17 02:10:00,53.8,34.0,30.06,North,356,0.0,0.0,47,-99.99,,CLR,-99.99,VWS V14.01,2013-03-17 06:10:00,
2013-03-17 02:12:00,53.6,33.9,30.06,North,356,0.0,0.0,47,-99.99,,CLR,-99.99,VWS V14.01,2013-03-17 06:12:00,
2013-03-17 02:15:00,53.6,33.9,30.06,North,356,0.0,0.0,47,-99.99,,CLR,-99.99,VWS V14.01,2013-03-17 06:15:00,
2013-03-17 02:17:00,53.4,34.2,30.06,North,356,0.0,0.0,48,-99.99,,CLR,-99.99,VWS V14.01,2013-03-17 06:17:00,
2013-03-17 02:18:00,53.4,34.2,30.06,North,356,0.0,0.0,48,-99.99,,CLR,-99.99,VWS V14.01,2013-03-17 06:18:00,
2013-03-17 02:20:00,53.2,34.1,30.06,North,356,0.0,0.0,48,-99.99,,CLR,-99.99,VWS V14.01,2013-03-17 06:20:00,
2013-03-17 02:21:00,53.2,34.1,30.06,North,356,0.0,0.0,48,-99.99,,CLR,-99.99,VWS V14.01,2013-03-17 06:21:00,
2013-03-17 02:24:00,53.1,33.9,30.06,North,356,0.0,0.0,48,-99.99,,CLR,-99.99,VWS V14.01,2013-03-17 06:24:00,
2013-03-17 02:26:00,53.1,33.9,30.06,North,356,0.0,0.0,48,-99.99,,CLR,-99.99,VWS V14.01,2013-03-17 06:26:00,
2013-03-17 02:27:00,53.1,33.9,30.06,North,356,0.0,0.0,48,-99.99,,CLR,-99.99,VWS V14.01,2013-03-17 06:27:00,
2013-03-17 02:29:00,52.9,33.7,30.06,North,356,0.0,0.0,48,-99.99,,CLR,-99.99,VWS V14.01,2013-03-17 06:29:00,
2013-03-17 02:30:00,52.9,34.3,30.06,North,356,0.0,0.0,49,-99.99,,CLR,-99.99,VWS V14.01,2013-03-17 06:30:00,
2013-03-17 02:31:00,52.9,34.3,30.06,North,356,0.0,0.0,49,-99.99,,CLR,-99.99,VWS V14.01,2013-03-17 06:31:00,
2013-03-17 02:33:00,52.9,34.3,30.06,North,356,0.0,0.0,49,-99.99,,CLR,-99.99,VWS V14.01,2013-03-17 06:33:00,
2013-03-17 02:35:00,52.7,34.1,30.06,North,356,0.0,0.0,49,-99.99,,CLR,-99.99,VWS V14.01,2013-03-17 06:35:00,
2013-03-17 02:38:00,52.7,34.1,30.06,North,356,0.0,0.0,49,-99.99,,CLR,-99.99,VWS V14.01,2013-03-17 06:38:00,
2013-03-17 02:40:00,52.7,34.1,30.06,North,356,0.0,0.0,49,-99.99,,CLR,-99.99,VWS V14.01,2013-03-17 06:40:00,
2013-03-17 02:43:00,53.1,34.4,30.06,North,356,0.0,0.0,49,-99.99,,CLR,-99.99,VWS V14.01,2013-03-17 06:43:00,
2013-03-17 02:45:00,53.1,34.4,30.06,North,356,0.0,0.0,49,-99.99,,CLR,-99.99,VWS V14.01,2013-03-17 06:45:00,
2013-03-17 02:47:00,53.1,34.4,30.06,North,356,0.0,0.0,49,-99.99,,CLR,-99.99,VWS V14.01,2013-03-17 06:47:00,
2013-03-17 02:48:00,53.1,34.4,30.06,North,356,0.0,0.0,49,-99.99,,CLR,-99.99,VWS V14.01,2013-03-17 06:48:00,
2013-03-17 02:49:00,53.1,34.4,30.06,North,356,0.0,0.0,49,-99.99,,CLR,-99.99,VWS V14.01,2013-03-17 06:49:00,
2013-03-17 02:51:00,53.1,33.9,30.06,North,356,0.0,0.0,48,-99.99,,CLR,-99.99,VWS V14.01,2013-03-17 06:51:00,
2013-03-17 02:52:00,53.1,33.9,30.06,North,356,0.0,0.0,48,-99.99,,CLR,-99.99,VWS V14.01,2013-03-17 06:52:00,
2013-03-17 02:53:00,53.1,34.4,30.06,North,356,0.0,0.0,49,-99.99,,CLR,-99.99,VWS V14.01,2013-03-17 06:53:00,
2013-03-17 02:54:00,53.2,34.6,30.06,North,356,0.0,0.0,49,-99.99,,CLR,-99.99,VWS V14.01,2013-03-17 06:54:00,
2013-03-17 02:57:00,53.2,34.6,30.06,North,356,0.0,0.0,49,-99.99,,CLR,-99.99,VWS V14.01,2013-03-17 06:57:00,
2013-03-17 02:58:00,53.2,34.1,30.06,North,356,0.0,0.0,48,-99.99,,CLR,-99.99,VWS V14.01,2013-03-17 06:58:00,
2013-03-17 02:59:00,53.2,34.1,30.06,North,356,0.0,0.0,48,-99.99,,CLR,-99.99,VWS V14.01,2013-03-17 06:59:00,
2013-03-17 03:00:00,53.2,34.6,30.06,North,356,0.0,0.0,49,-99.99,,CLR,-99.99,VWS V14.01,2013-03-17 07:00:00,
2013-03-17 03:03:00,53.2,34.6,30.06,North,356,0.0,0.0,49,-99.99,,CLR,-99.99,VWS V14.01,2013-03-17 07:03:00,
2013-03-17 03:04:00,53.1,34.4,30.06,North,356,0.0,0.0,49,-99.99,,CLR,-99.99,VWS V14.01,2013-03-17 07:04:00,
2013-03-17 03:05:00,53.1,34.4,30.06,North,356,0.0,0.0,49,-99.99,,CLR,-99.99,VWS V14.01,2013-03-17 07:05:00,
2013-03-17 03:08:00,53.1,34.4,30.06,North,356,0.0,0.0,49,-99.99,,CLR,-99.99,VWS V14.01,2013-03-17 07:08:00,
2013-03-17 03:09:00,53.1,34.4,30.06,North,356,0.0,0.0,49,-99.99,,CLR,-99.99,VWS V14.01,2013-03-17 07:09:00,
2013-03-17 03:10:00,53.1,34.4,30.06,North,356,0.0,0.0,49,-99.99,,CLR,-99.99,VWS V14.01,2013-03-17 07:10:00,
2013-03-17 03:13:00,53.1,34.4,30.06,North,356,0.0,0.0,49,-99.99,,CLR,-99.99,VWS V14.01,2013-03-17 07:13:00,
2013-03-17 03:15:00,53.1,34.4,30.06,North,356,0.0,0.0,49,-99.99,,CLR,-99.99,VWS V14.01,2013-03-17 07:15:00,
2013-03-17 03:16:00,53.1,34.4,30.06,North,356,0.0,0.0,49,-99.99,,CLR,-99.99,VWS V14.01,2013-03-17 07:16:00,
2013-03-17 03:19:00,53.2,34.6,30.06,North,356,0.0,0.0,49,-99.99,,CLR,-99.99,VWS V14.01,2013-03-17 07:19:00,
2013-03-17 03:21:00,53.2,34.6,30.06,North,356,0.0,0.0,49,-99.99,,CLR,-99.99,VWS V14.01,2013-03-17 07:21:00,
2013-03-17 03:22:00,53.2,34.6,30.06,North,356,0.0,0.0,49,-99.99,,CLR,-99.99,VWS V14.01,2013-03-17 07:22:00,
2013-03-17 03:24:00,53.1,34.4,30.06,North,356,0.0,0.0,49,-99.99,,CLR,-99.99,VWS V14.01,2013-03-17 07:24:00,
2013-03-17 03:27:00,53.1,34.4,30.06,North,356,0.0,0.0,49,-99.99,,CLR,-99.99,VWS V14.01,2013-03-17 07:27:00,
2013-03-17 03:29:00,52.9,34.8,30.06,North,356,0.0,0.0,50,-99.99,,CLR,-99.99,VWS V14.01,2013-03-17 07:29:00,
2013-03-17 03:32:00,52.9,34.8,30.06,North,356,0.0,0.0,50,-99.99,,CLR,-99.99,VWS V14.01,2013-03-17 07:32:00,
2013-03-17 03:33:00,52.9,34.8,30.06,North,356,0.0,0.0,50,-99.99,,CLR,-99.99,VWS V14.01,2013-03-17 07:33:00,
2013-03-17 03:34:00,52.9,34.8,30.06,North,356,0.0,0.0,50,-99.99,,CLR,-99.99,VWS V14.01,2013-03-17 07:34:00,
2013-03-17 03:38:00,52.7,35.1,30.06,North,356,0.0,0.0,51,-99.99,,CLR,-99.99,VWS V14.01,2013-03-17 07:38:00,
2013-03-17 03:40:00,52.5,34.9,30.06,North,356,0.0,0.0,51,-99.99,,CLR,-99.99,VWS V14.01,2013-03-17 07:40:00,
2013-03-17 03:43:00,52.5,34.9,30.06,North,356,0.0,0.0,51,-99.99,,CLR,-99.99,VWS V14.01,2013-03-17 07:43:00,
2013-03-17 03:44:00,52.3,34.8,30.06,North,356,0.0,0.0,51,-99.99,,CLR,-99.99,VWS V14.01,2013-03-17 07:44:00,
2013-03-17 03:45:00,52.3,34.8,30.06,North,356,0.0,0.0,51,-99.99,,CLR,-99.99,VWS V14.01,2013-03-17 07:45:00,
2013-03-17 03:48:00,52.3,35.2,30.06,North,356,0.0,0.0,52,-99.99,,CLR,-99.99,VWS V14.01,2013-03-17 07:48:00,
2013-03-17 03:49:00,52.2,35.1,30.06,North,356,0.0,0.0,52,-99.99,,CLR,-99.99,VWS V14.01,2013-03-17 07:49:00,
2013-03-17 03:50:00,52.2,35.1,30.06,North,356,0.0,0.0,52,-99.99,,CLR,-99.99,VWS V14.01,2013-03-17 07:50:00,
2013-03-17 03:51:00,52.2,35.1,30.06,North,356,0.0,0.0,52,-99.99,,CLR,-99.99,VWS V14.01,2013-03-17 07:51:00,
2013-03-17 03:54:00,52.0,34.9,30.06,North,356,0.0,0.0,52,-99.99,,CLR,-99.99,VWS V14.01,2013-03-17 07:54:00,
2013-03-17 03:55:00,52.0,34.9,30.06,North,356,0.0,0.0,52,-99.99,,CLR,-99.99,VWS V14.01,2013-03-17 07:55:00,
2013-03-17 03:59:00,52.0,34.9,30.06,North,356,0.0,0.0,52,-99.99,,CLR,-99.99,VWS V14.01,2013-03-17 07:59:00,
2013-03-17 04:00:00,52.0,34.9,30.06,North,356,0.0,0.0,52,-99.99,,CLR,-99.99,VWS V14.01,2013-03-17 08:00:00,
2013-03-17 04:01:00,52.0,34.9,30.06,North,356,0.0,0.0,52,-99.99,,CLR,-99.99,VWS V14.01,2013-03-17 08:01:00,
2013-03-17 04:04:00,52.0,34.9,30.06,North,356,0.0,0.0,52,-99.99,,CLR,-99.99,VWS V14.01,2013-03-17 08:04:00,
2013-03-17 04:05:00,52.0,34.9,30.06,North,356,0.0,0.0,52,-99.99,,CLR,-99.99,VWS V14.01,2013-03-17 08:05:00,
2013-03-17 04:06:00,52.0,34.9,30.06,North,356,0.0,0.0,52,-99.99,,CLR,-99.99,VWS V14.01,2013-03-17 08:06:00,
2013-03-17 04:10:00,52.0,34.9,30.06,North,356,0.0,0.0,52,-99.99,,CLR,-99.99,VWS V14.01,2013-03-17 08:10:00,
2013-03-17 04:11:00,52.2,35.1,30.06,North,356,0.0,0.0,52,-99.99,,CLR,-99.99,VWS V14.01,2013-03-17 08:11:00,
2013-03-17 04:12:00,52.2,35.1,30.06,North,356,0.0,0.0,52,-99.99,,CLR,-99.99,VWS V14.01,2013-03-17 08:12:00,
2013-03-17 04:15:00,52.3,35.2,30.06,North,356,0.0,0.0,52,-99.99,,CLR,-99.99,VWS V14.01,2013-03-17 08:15:00,
2013-03-17 04:16:00,52.3,35.2,30.06,North,356,0.0,0.0,52,-99.99,,CLR,-99.99,VWS V14.01,2013-03-17 08:16:00,
2013-03-17 04:17:00,52.3,35.2,30.06,North,356,0.0,0.0,52,-99.99,,CLR,-99.99,VWS V14.01,2013-03-17 08:17:00,
2013-03-17 04:20:00,52.3,35.2,30.06,North,356,0.0,0.0,52,-99.99,,CLR,-99.99,VWS V14.01,2013-03-17 08:20:00,
2013-03-17 04:21:00,52.3,35.2,30.06,North,356,0.0,0.0,52,-99.99,,CLR,-99.99,VWS V14.01,2013-03-17 08:21:00,
2013-03-17 04:22:00,52.3,35.2,30.06,North,356,0.0,0.0,52,-99.99,,CLR,-99.99,VWS V14.01,2013-03-17 08:22:00,
2013-03-17 04:25:00,52.3,35.2,30.06,North,356,0.0,0.0,52,-99.99,,CLR,-99.99,VWS V14.01,2013-03-17 08:25:00,
2013-03-17 04:27:00,52.3,35.2,30.06,North,356,0.0,0.0,52,-99.99,,CLR,-99.99,VWS V14.01,2013-03-17 08:27:00,
2013-03-17 04:31:00,52.2,34.6,30.06,North,356,0.0,0.0,51,-99.99,,CLR,-99.99,VWS V14.01,2013-03-17 08:31:00,
2013-03-17 04:32:00,52.2,34.6,30.06,North,356,0.0,0.0,51,-99.99,,CLR,-99.99,VWS V14.01,2013-03-17 08:32:00,
2013-03-17 04:33:00,52.2,34.6,30.06,North,356,0.0,0.0,51,-99.99,,CLR,-99.99,VWS V14.01,2013-03-17 08:33:00,
2013-03-17 04:37:00,52.0,34.9,30.06,North,356,0.0,0.0,52,-99.99,,CLR,-99.99,VWS V14.01,2013-03-17 08:37:00,
2013-03-17 04:38:00,52.0,34.9,30.06,North,356,0.0,0.0,52,-99.99,,CLR,-99.99,VWS V14.01,2013-03-17 08:38:00,
2013-03-17 04:39:00,52.0,34.9,30.06,North,356,0.0,0.0,52,-99.99,,CLR,-99.99,VWS V14.01,2013-03-17 08:39:00,
2013-03-17 04:43:00,51.8,35.2,30.06,North,356,0.0,0.0,53,-99.99,,CLR,-99.99,VWS V14.01,2013-03-17 08:43:00,
2013-03-17 04:44:00,51.8,35.2,30.06,North,356,0.0,0.0,53,-99.99,,CLR,-99.99,VWS V14.01,2013-03-17 08:44:00,
2013-03-17 04:48:00,51.6,35.5,30.06,North,356,0.0,0.0,54,-99.99,,CLR,-99.99,VWS V14.01,2013-03-17 08:48:00,
2013-03-17 04:49:00,51.6,35.5,30.06,North,356,0.0,0.0,54,-99.99,,CLR,-99.99,VWS V14.01,2013-03-17 08:49:00,
2013-03-17 04:53:00,51.6,35.5,30.06,North,356,0.0,0.0,54,-99.99,,CLR,-99.99,VWS V14.01,2013-03-17 08:53:00,
2013-03-17 04:54:00,51.6,36.0,30.06,North,356,0.0,0.0,55,-99.99,,CLR,-99.99,VWS V14.01,2013-03-17 08:54:00,
2013-03-17 04:55:00,51.6,36.0,30.06,North,356,0.0,0.0,55,-99.99,,CLR,-99.99,VWS V14.01,2013-03-17 08:55:00,
2013-03-17 04:59:00,51.4,35.8,30.06,North,356,0.0,0.0,55,-99.99,,CLR,-99.99,VWS V14.01,2013-03-17 08:59:00,
2013-03-17 05:00:00,51.3,35.7,30.06,North,356,0.0,0.0,55,-99.99,,CLR,-99.99,VWS V14.01,2013-03-17 09:00:00,
2013-03-17 05:01:00,51.3,35.7,30.06,North,356,0.0,0.0,55,-99.99,,CLR,-99.99,VWS V14.01,2013-03-17 09:01:00,
2013-03-17 05:05:00,51.1,35.5,30.06,North,356,0.0,0.0,55,-99.99,,CLR,-99.99,VWS V14.01,2013-03-17 09:05:00,
2013-03-17 05:09:00,50.9,35.3,30.06,North,356,0.0,0.0,55,-99.99,,CLR,-99.99,VWS V14.01,2013-03-17 09:09:00,
2013-03-17 05:10:00,50.9,35.3,30.06,North,356,0.0,0.0,55,-99.99,,CLR,-99.99,VWS V14.01,2013-03-17 09:10:00,
2013-03-17 05:12:00,50.7,35.2,30.06,North,356,0.0,0.0,55,-99.99,,CLR,-99.99,VWS V14.01,2013-03-17 09:12:00,
2013-03-17 05:15:00,50.5,35.0,30.06,North,356,0.0,0.0,55,-99.99,,CLR,-99.99,VWS V14.01,2013-03-17 09:15:00,
2013-03-17 05:16:00,50.5,35.0,30.06,North,356,0.0,0.0,55,-99.99,,CLR,-99.99,VWS V14.01,2013-03-17 09:16:00,
2013-03-17 05:18:00,50.4,34.8,30.06,North,356,0.0,0.0,55,-99.99,,CLR,-99.99,VWS V14.01,2013-03-17 09:18:00,
2013-03-17 05:20:00,50.2,34.7,30.06,North,356,0.0,0.0,55,-99.99,,CLR,-99.99,VWS V14.01,2013-03-17 09:20:00,
2013-03-17 05:21:00,50.2,34.7,30.06,North,356,0.0,0.0,55,-99.99,,CLR,-99.99,VWS V14.01,2013-03-17 09:21:00,
2013-03-17 05:23:00,50.2,34.7,30.06,North,356,0.0,0.0,55,-99.99,,CLR,-99.99,VWS V14.01,2013-03-17 09:23:00,
2013-03-17 05:26:00,50.2,35.1,30.06,North,356,0.0,0.0,56,-99.99,,CLR,-99.99,VWS V14.01,2013-03-17 09:26:00,
2013-03-17 05:28:00,50.0,34.9,30.06,North,356,0.0,0.0,56,-99.99,,CLR,-99.99,VWS V14.01,2013-03-17 09:28:00,
2013-03-17 05:31:00,49.8,34.8,30.06,North,356,0.0,0.0,56,-99.99,,CLR,-99.99,VWS V14.01,2013-03-17 09:31:00,
2013-03-17 05:32:00,49.8,35.2,30.06,North,356,0.0,0.0,57,-99.99,,CLR,-99.99,VWS V14.01,2013-03-17 09:32:00,
2013-03-17 05:33:00,49.8,35.2,30.06,North,356,0.0,0.0,57,-99.99,,CLR,-99.99,VWS V14.01,2013-03-17 09:33:00,
2013-03-17 05:37:00,49.6,35.5,30.06,North,356,0.0,0.0,58,-99.99,,CLR,-99.99,VWS V14.01,2013-03-17 09:37:00,
2013-03-17 05:38:00,49.5,35.3,30.06,North,356,0.0,0.0,58,-99.99,,CLR,-99.99,VWS V14.01,2013-03-17 09:38:00,
2013-03-17 05:42:00,49.5,35.7,30.06,North,356,0.0,0.0,59,-99.99,,CLR,-99.99,VWS V14.01,2013-03-17 09:42:00,
2013-03-17 05:43:00,49.5,35.7,30.06,North,356,0.0,0.0,59,-99.99,,CLR,-99.99,VWS V14.01,2013-03-17 09:43:00,
2013-03-17 05:44:00,49.3,35.6,30.06,North,356,0.0,0.0,59,-99.99,,CLR,-99.99,VWS V14.01,2013-03-17 09:44:00,
2013-03-17 05:45:00,49.3,35.6,30.06,North,356,0.0,0.0,59,-99.99,,CLR,-99.99,VWS V14.01,2013-03-17 09:45:00,
2013-03-17 05:47:00,49.3,35.6,30.06,North,356,0.0,0.0,59,-99.99,,CLR,-99.99,VWS V14.01,2013-03-17 09:47:00,
2013-03-17 05:49:00,49.1,35.4,30.06,North,356,0.0,0.0,59,-99.99,,CLR,-99.99,VWS V14.01,2013-03-17 09:49:00,
2013-03-17 05:50:00,49.1,35.4,30.06,North,356,0.0,0.0,59,-99.99,,CLR,-99.99,VWS V14.01,2013-03-17 09:50:00,
2013-03-17 05:52:00,49.1,35.8,30.06,North,356,0.0,0.0,60,-99.99,,CLR,-99.99,VWS V14.01,2013-03-17 09:52:00,
2013-03-17 05:53:00,49.1,35.8,30.06,North,356,0.0,0.0,60,-99.99,,CLR,-99.99,VWS V14.01,2013-03-17 09:53:00,
2013-03-17 05:55:00,48.9,35.7,30.06,North,356,0.0,0.0,60,-99.99,,CLR,-99.99,VWS V14.01,2013-03-17 09:55:00,
2013-03-17 05:56:00,48.9,35.7,30.06,North,356,0.0,0.0,60,-99.99,,CLR,-99.99,VWS V14.01,2013-03-17 09:56:00,
2013-03-17 05:58:00,48.9,35.7,30.06,North,356,0.0,0.0,60,-99.99,,CLR,-99.99,VWS V14.01,2013-03-17 09:58:00,
2013-03-17 05:59:00,48.9,35.7,30.06,North,356,0.0,0.0,60,-99.99,,CLR,-99.99,VWS V14.01,2013-03-17 09:59:00,
2013-03-17 06:01:00,48.9,35.7,30.06,North,356,0.0,0.0,60,-99.99,,CLR,-99.99,VWS V14.01,2013-03-17 10:01:00,
2013-03-17 06:02:00,48.9,35.7,30.06,North,356,0.0,0.0,60,-99.99,,CLR,-99.99,VWS V14.01,2013-03-17 10:02:00,
2013-03-17 06:04:00,48.7,35.5,30.06,North,356,0.0,0.0,60,-99.99,,CLR,-99.99,VWS V14.01,2013-03-17 10:04:00,
2013-03-17 06:07:00,48.7,35.5,30.09,North,356,0.0,0.0,60,-99.99,,CLR,-99.99,VWS V14.01,2013-03-17 10:07:00,
2013-03-17 06:09:00,48.7,35.5,30.09,North,356,0.0,0.0,60,-99.99,,CLR,-99.99,VWS V14.01,2013-03-17 10:09:00,
2013-03-17 06:10:00,48.7,35.5,30.09,North,356,0.0,0.0,60,-99.99,,CLR,-99.99,VWS V14.01,2013-03-17 10:10:00,
2013-03-17 06:12:00,48.7,35.5,30.09,North,356,0.0,0.0,60,-99.99,,CLR,-99.99,VWS V14.01,2013-03-17 10:12:00,
2013-03-17 06:13:00,48.7,35.5,30.09,North,356,0.0,0.0,60,-99.99,,CLR,-99.99,VWS V14.01,2013-03-17 10:13:00,
2013-03-17 06:15:00,48.7,35.5,30.09,North,356,0.0,0.0,60,-99.99,,CLR,-99.99,VWS V14.01,2013-03-17 10:15:00,
2013-03-17 06:17:00,48.7,35.9,30.09,North,356,0.0,0.0,61,-99.99,,CLR,-99.99,VWS V14.01,2013-03-17 10:17:00,
2013-03-17 06:20:00,48.7,35.9,30.09,North,356,0.0,0.0,61,-99.99,,CLR,-99.99,VWS V14.01,2013-03-17 10:20:00,
2013-03-17 06:21:00,48.7,35.9,30.09,North,356,0.0,0.0,61,-99.99,,CLR,-99.99,VWS V14.01,2013-03-17 10:21:00,
2013-03-17 06:22:00,48.7,35.9,30.09,North,356,0.0,0.0,61,-99.99,,CLR,-99.99,VWS V14.01,2013-03-17 10:22:00,
2013-03-17 06:25:00,48.7,35.9,30.09,North,356,0.0,0.0,61,-99.99,,CLR,-99.99,VWS V14.01,2013-03-17 10:25:00,
2013-03-17 06:27:00,48.7,36.3,30.09,North,356,0.0,0.0,62,-99.99,,CLR,-99.99,VWS V14.01,2013-03-17 10:27:00,
2013-03-17 06:28:00,48.7,36.3,30.09,North,356,0.0,0.0,62,-99.99,,CLR,-99.99,VWS V14.01,2013-03-17 10:28:00,
2013-03-17 06:31:00,48.7,36.3,30.09,North,356,0.0,0.0,62,-99.99,,CLR,-99.99,VWS V14.01,2013-03-17 10:31:00,
2013-03-17 06:32:00,48.7,36.3,30.09,North,356,0.0,0.0,62,-99.99,,CLR,-99.99,VWS V14.01,2013-03-17 10:32:00,
2013-03-17 06:33:00,48.7,36.7,30.09,North,356,0.0,0.0,63,-99.99,,CLR,-99.99,VWS V14.01,2013-03-17 10:33:00,
2013-03-17 06:34:00,48.7,36.7,30.09,North,356,0.0,0.0,63,-99.99,,CLR,-99.99,VWS V14.01,2013-03-17 10:34:00,
2013-03-17 06:37:00,48.7,36.7,30.09,North,356,0.0,0.0,63,-99.99,,CLR,-99.99,VWS V14.01,2013-03-17 10:37:00,
2013-03-17 06:39:00,48.9,36.9,30.09,North,356,0.0,0.0,63,-99.99,,CLR,-99.99,VWS V14.01,2013-03-17 10:39:00,
2013-03-17 06:40:00,48.9,36.9,30.09,North,356,0.0,0.0,63,-99.99,,CLR,-99.99,VWS V14.01,2013-03-17 10:40:00,
2013-03-17 06:42:00,48.9,36.9,30.09,North,356,0.0,0.0,63,-99.99,,CLR,-99.99,VWS V14.01,2013-03-17 10:42:00,
2013-03-17 06:43:00,48.9,37.3,30.09,North,356,0.0,0.0,64,-99.99,,CLR,-99.99,VWS V14.01,2013-03-17 10:43:00,
2013-03-17 06:45:00,48.9,37.3,30.09,North,356,0.0,0.0,64,-99.99,,CLR,-99.99,VWS V14.01,2013-03-17 10:45:00,
2013-03-17 06:48:00,49.1,37.5,30.09,North,356,0.0,0.0,64,-99.99,,CLR,-99.99,VWS V14.01,2013-03-17 10:48:00,
2013-03-17 06:49:00,49.1,37.5,30.09,North,356,0.0,0.0,64,-99.99,,CLR,-99.99,VWS V14.01,2013-03-17 10:49:00,
2013-03-17 06:50:00,49.1,37.5,30.09,North,356,0.0,0.0,64,-99.99,,CLR,-99.99,VWS V14.01,2013-03-17 10:50:00,
2013-03-17 06:51:00,49.1,37.5,30.09,North,356,0.0,0.0,64,-99.99,,CLR,-99.99,VWS V14.01,2013-03-17 10:51:00,
2013-03-17 06:53:00,49.1,37.5,30.09,North,356,0.0,0.0,64,-99.99,,CLR,-99.99,VWS V14.01,2013-03-17 10:53:00,
2013-03-17 06:55:00,49.1,37.5,30.09,North,356,0.0,0.0,64,-99.99,,CLR,-99.99,VWS V14.01,2013-03-17 10:55:00,
2013-03-17 06:57:00,49.1,37.5,30.09,North,356,0.0,0.0,64,-99.99,,CLR,-99.99,VWS V14.01,2013-03-17 10:57:00,
2013-03-17 06:58:00,49.1,37.5,30.09,North,356,0.0,0.0,64,-99.99,,CLR,-99.99,VWS V14.01,2013-03-17 10:58:00,
2013-03-17 07:01:00,48.9,37.3,30.09,North,356,0.0,0.0,64,-99.99,,CLR,-99.99,VWS V14.01,2013-03-17 11:01:00,
2013-03-17 07:03:00,48.7,37.1,30.09,North,356,0.0,0.0,64,-99.99,,CLR,-99.99,VWS V14.01,2013-03-17 11:03:00,
2013-03-17 07:04:00,48.7,37.5,30.09,North,356,0.0,0.0,65,-99.99,,CLR,-99.99,VWS V14.01,2013-03-17 11:04:00,
2013-03-17 07:06:00,48.6,37.3,30.09,North,356,0.0,0.0,65,-99.99,,CLR,-99.99,VWS V14.01,2013-03-17 11:06:00,
2013-03-17 07:08:00,48.6,37.3,30.09,North,356,0.0,0.0,65,-99.99,,CLR,-99.99,VWS V14.01,2013-03-17 11:08:00,
2013-03-17 07:10:00,48.4,37.2,30.09,North,356,0.0,0.0,65,-99.99,,CLR,-99.99,VWS V14.01,2013-03-17 11:10:00,
2013-03-17 07:12:00,48.2,37.0,30.09,North,356,0.0,0.0,65,-99.99,,CLR,-99.99,VWS V14.01,2013-03-17 11:12:00,
2013-03-17 07:14:00,48.2,37.0,30.09,North,356,0.0,0.0,65,-99.99,,CLR,-99.99,VWS V14.01,2013-03-17 11:14:00,
2013-03-17 07:15:00,48.2,37.0,30.09,North,356,0.0,0.0,65,-99.99,,CLR,-99.99,VWS V14.01,2013-03-17 11:15:00,
2013-03-17 07:16:00,48.2,37.4,30.09,North,356,0.0,0.0,66,-99.99,,CLR,-99.99,VWS V14.01,2013-03-17 11:16:00,
2013-03-17 07:18:00,48.0,37.2,30.09,North,356,0.0,0.0,66,-99.99,,CLR,-99.99,VWS V14.01,2013-03-17 11:18:00,
2013-03-17 07:19:00,48.0,37.2,30.09,North,356,0.0,0.0,66,-99.99,,CLR,-99.99,VWS V14.01,2013-03-17 11:19:00,
2013-03-17 07:20:00,48.0,37.2,30.09,North,356,0.0,0.0,66,-99.99,,CLR,-99.99,VWS V14.01,2013-03-17 11:20:00,
2013-03-17 07:22:00,48.0,37.2,30.09,North,356,0.0,0.0,66,-99.99,,CLR,-99.99,VWS V14.01,2013-03-17 11:22:00,
2013-03-17 07:24:00,48.0,37.6,30.09,North,356,0.0,0.0,67,-99.99,,CLR,-99.99,VWS V14.01,2013-03-17 11:24:00,
2013-03-17 07:25:00,48.0,37.6,30.09,North,356,0.0,0.0,67,-99.99,,CLR,-99.99,VWS V14.01,2013-03-17 11:25:00,
2013-03-17 07:27:00,48.0,37.6,30.09,North,356,0.0,0.0,67,-99.99,,CLR,-99.99,VWS V14.01,2013-03-17 11:27:00,
2013-03-17 07:29:00,48.0,37.6,30.09,North,356,0.0,0.0,67,-99.99,,CLR,-99.99,VWS V14.01,2013-03-17 11:29:00,
2013-03-17 07:30:00,48.0,37.6,30.09,North,356,0.0,0.0,67,-99.99,,CLR,-99.99,VWS V14.01,2013-03-17 11:30:00,
2013-03-17 07:32:00,48.0,37.6,30.09,North,356,0.0,0.0,67,-99.99,,CLR,-99.99,VWS V14.01,2013-03-17 11:32:00,
2013-03-17 07:34:00,48.0,37.6,30.09,North,356,0.0,0.0,67,-99.99,,CLR,-99.99,VWS V14.01,2013-03-17 11:34:00,
2013-03-17 07:37:00,47.8,37.4,30.09,North,356,0.0,0.0,67,-99.99,,CLR,-99.99,VWS V14.01,2013-03-17 11:37:00,
2013-03-17 07:38:00,47.8,37.4,30.09,North,356,0.0,0.0,67,-99.99,,CLR,-99.99,VWS V14.01,2013-03-17 11:38:00,
2013-03-17 07:39:00,47.8,37.4,30.09,North,356,0.0,0.0,67,-99.99,,CLR,-99.99,VWS V14.01,2013-03-17 11:39:00,
2013-03-17 07:43:00,47.8,37.4,30.09,North,356,0.0,0.0,67,-99.99,,CLR,-99.99,VWS V14.01,2013-03-17 11:43:00,
2013-03-17 07:44:00,47.8,37.4,30.09,North,356,0.0,0.0,67,-99.99,,CLR,-99.99,VWS V14.01,2013-03-17 11:44:00,
2013-03-17 07:45:00,47.8,37.4,30.09,North,356,0.0,0.0,67,-99.99,,CLR,-99.99,VWS V14.01,2013-03-17 11:45:00,
2013-03-17 07:48:00,47.8,37.8,30.09,North,356,0.0,0.0,68,-99.99,,CLR,-99.99,VWS V14.01,2013-03-17 11:48:00,
2013-03-17 07:49:00,47.8,37.8,30.09,North,356,0.0,0.0,68,-99.99,,CLR,-99.99,VWS V14.01,2013-03-17 11:49:00,
2013-03-17 07:51:00,47.8,37.8,30.09,North,356,0.0,0.0,68,-99.99,,CLR,-99.99,VWS V14.01,2013-03-17 11:51:00,
2013-03-17 07:52:00,47.8,37.8,30.09,North,356,0.0,0.0,68,-99.99,,CLR,-99.99,VWS V14.01,2013-03-17 11:52:00,
2013-03-17 07:54:00,47.8,37.8,30.09,North,356,0.0,0.0,68,-99.99,,CLR,-99.99,VWS V14.01,2013-03-17 11:54:00,
2013-03-17 07:56:00,47.8,37.8,30.09,North,356,0.0,0.0,68,-99.99,,CLR,-99.99,VWS V14.01,2013-03-17 11:56:00,
2013-03-17 07:59:00,48.0,38.0,30.09,North,356,0.0,0.0,68,-99.99,,CLR,-99.99,VWS V14.01,2013-03-17 11:59:00,
2013-03-17 08:00:00,48.0,38.0,30.09,North,356,0.0,0.0,68,-99.99,,CLR,-99.99,VWS V14.01,2013-03-17 12:00:00,
2013-03-17 08:01:00,48.0,38.3,30.09,North,356,0.0,0.0,69,-99.99,,CLR,-99.99,VWS V14.01,2013-03-17 12:01:00,
2013-03-17 08:05:00,48.2,38.5,30.09,North,356,0.0,0.0,69,-99.99,,CLR,-99.99,VWS V14.01,2013-03-17 12:05:00,
2013-03-17 08:07:00,48.4,38.7,30.09,North,356,0.0,0.0,69,-99.99,,CLR,-99.99,VWS V14.01,2013-03-17 12:07:00,
2013-03-17 08:10:00,48.7,39.0,30.09,North,356,0.0,0.0,69,-99.99,,CLR,-99.99,VWS V14.01,2013-03-17 12:10:00,
2013-03-17 08:12:00,48.9,39.6,30.09,North,356,0.0,0.0,70,-99.99,,CLR,-99.99,VWS V14.01,2013-03-17 12:12:00,
2013-03-17 08:15:00,49.1,39.4,30.09,North,356,0.0,0.0,69,-99.99,,CLR,-99.99,VWS V14.01,2013-03-17 12:15:00,
2013-03-17 08:16:00,49.3,39.5,30.09,North,356,0.0,0.0,69,-99.99,,CLR,-99.99,VWS V14.01,2013-03-17 12:16:00,
2013-03-17 08:17:00,49.5,39.7,30.09,North,356,0.0,0.0,69,-99.99,,CLR,-99.99,VWS V14.01,2013-03-17 12:17:00,
2013-03-17 08:19:00,49.6,39.9,30.09,North,356,0.0,0.0,69,-99.99,,CLR,-99.99,VWS V14.01,2013-03-17 12:19:00,
2013-03-17 08:21:00,49.8,40.4,30.12,North,356,0.0,0.0,70,-99.99,,CLR,-99.99,VWS V14.01,2013-03-17 12:21:00,
2013-03-17 08:23:00,50.2,40.8,30.12,North,356,0.0,0.0,70,-99.99,,CLR,-99.99,VWS V14.01,2013-03-17 12:23:00,
2013-03-17 08:26:00,50.9,41.5,30.12,North,356,0.0,0.0,70,-99.99,,CLR,-99.99,VWS V14.01,2013-03-17 12:26:00,
2013-03-17 08:27:00,51.1,41.7,30.12,North,356,0.0,0.0,70,-99.99,,CLR,-99.99,VWS V14.01,2013-03-17 12:27:00,
2013-03-17 08:28:00,51.3,41.5,30.12,North,356,0.0,0.0,69,-99.99,,CLR,-99.99,VWS V14.01,2013-03-17 12:28:00,
2013-03-17 08:29:00,51.4,41.6,30.12,North,356,0.0,0.0,69,-99.99,,CLR,-99.99,VWS V14.01,2013-03-17 12:29:00,
2013-03-17 08:32:00,52.0,42.1,30.12,North,356,0.0,0.0,69,-99.99,,CLR,-99.99,VWS V14.01,2013-03-17 12:32:00,
2013-03-17 08:34:00,52.5,42.7,30.12,North,356,3.6,3.6,69,-99.99,,CLR,-99.99,VWS V14.01,2013-03-17 12:34:00,
2013-03-17 08:35:00,52.9,42.6,30.12,North,356,4.5,5.4,68,-99.99,,CLR,-99.99,VWS V14.01,2013-03-17 12:35:00,
2013-03-17 08:38:00,53.6,43.3,30.12,North,356,3.6,4.9,68,-99.99,,CLR,-99.99,VWS V14.01,2013-03-17 12:38:00,
2013-03-17 08:40:00,54.1,43.4,30.12,North,356,3.6,3.6,67,-99.99,,CLR,-99.99,VWS V14.01,2013-03-17 12:40:00,
2013-03-17 08:43:00,55.0,43.9,30.12,North,356,2.7,3.6,66,-99.99,,CLR,-99.99,VWS V14.01,2013-03-17 12:43:00,
2013-03-17 08:46:00,55.8,44.2,30.12,North,356,0.0,3.6,65,-99.99,,CLR,-99.99,VWS V14.01,2013-03-17 12:46:00,
2013-03-17 08:47:00,56.1,44.1,30.12,North,356,0.0,0.0,64,-99.99,,CLR,-99.99,VWS V14.01,2013-03-17 12:47:00,
2013-03-17 08:49:00,56.5,43.6,30.12,North,356,0.0,0.0,62,-99.99,,CLR,-99.99,VWS V14.01,2013-03-17 12:49:00,
2013-03-17 08:51:00,56.8,43.5,30.12,North,356,0.0,4.0,61,-99.99,,CLR,-99.99,VWS V14.01,2013-03-17 12:51:00,
2013-03-17 08:52:00,57.2,43.5,30.12,North,356,0.0,0.0,60,-99.99,,CLR,-99.99,VWS V14.01,2013-03-17 12:52:00,
2013-03-17 08:54:00,57.6,43.4,30.12,North,356,0.0,3.6,59,-99.99,,CLR,-99.99,VWS V14.01,2013-03-17 12:54:00,
2013-03-17 08:55:00,57.9,43.2,30.12,North,356,0.0,0.0,58,-99.99,,CLR,-99.99,VWS V14.01,2013-03-17 12:55:00,
2013-03-17 08:57:00,58.3,42.7,30.12,North,356,0.0,0.0,56,-99.99,,CLR,-99.99,VWS V14.01,2013-03-17 12:57:00,
2013-03-17 08:58:00,58.3,42.7,30.12,North,356,0.0,0.0,56,-99.99,,CLR,-99.99,VWS V14.01,2013-03-17 12:58:00,
2013-03-17 09:01:00,58.8,42.2,30.12,North,356,4.5,4.9,54,-99.99,,CLR,-99.99,VWS V14.01,2013-03-17 13:01:00,
2013-03-17 09:02:00,59.2,42.1,30.12,North,356,0.0,4.5,53,-99.99,,CLR,-99.99,VWS V14.01,2013-03-17 13:02:00,
2013-03-17 09:03:00,59.4,41.8,30.12,North,356,2.7,3.6,52,-99.99,,CLR,-99.99,VWS V14.01,2013-03-17 13:03:00,
2013-03-17 09:07:00,60.1,40.9,30.12,North,356,0.0,0.0,49,-99.99,,CLR,-99.99,VWS V14.01,2013-03-17 13:07:00,
2013-03-17 09:08:00,60.3,41.0,30.12,North,356,3.6,4.0,49,-99.99,,CLR,-99.99,VWS V14.01,2013-03-17 13:08:00,
2013-03-17 09:09:00,60.6,40.8,30.12,North,356,3.1,3.1,48,-99.99,,CLR,-99.99,VWS V14.01,2013-03-17 13:09:00,
2013-03-17 09:12:00,61.2,40.2,30.12,North,356,0.0,0.0,46,-99.99,,CLR,-99.99,VWS V14.01,2013-03-17 13:12:00,
2013-03-17 09:13:00,61.3,39.8,30.12,North,356,0.0,0.0,45,-99.99,,CLR,-99.99,VWS V14.01,2013-03-17 13:13:00,
2013-03-17 09:16:00,61.7,39.6,30.12,North,356,0.0,0.0,44,-99.99,,CLR,-99.99,VWS V14.01,2013-03-17 13:16:00,
2013-03-17 09:17:00,62.1,39.9,30.12,North,356,2.7,2.7,44,-99.99,,CLR,-99.99,VWS V14.01,2013-03-17 13:17:00,
2013-03-17 09:18:00,62.2,40.1,30.12,North,356,0.0,0.0,44,-99.99,,CLR,-99.99,VWS V14.01,2013-03-17 13:18:00,
2013-03-17 09:23:00,63.1,39.7,30.12,North,356,4.9,4.9,42,-99.99,,CLR,-99.99,VWS V14.01,2013-03-17 13:23:00,
2013-03-17 09:24:00,63.5,40.0,30.12,North,356,3.1,3.1,42,-99.99,,CLR,-99.99,VWS V14.01,2013-03-17 13:24:00,
2013-03-17 09:28:00,63.9,37.1,30.12,North,356,4.0,4.5,37,-99.99,,CLR,-99.99,VWS V14.01,2013-03-17 13:28:00,
2013-03-17 09:29:00,63.9,37.1,30.12,North,356,0.0,4.5,37,-99.99,,CLR,-99.99,VWS V14.01,2013-03-17 13:29:00,
2013-03-17 09:31:00,64.0,36.6,30.12,North,356,3.6,4.5,36,-99.99,,CLR,-99.99,VWS V14.01,2013-03-17 13:31:00,
2013-03-17 09:34:00,64.2,36.7,30.12,North,356,0.0,3.6,36,-99.99,,CLR,-99.99,VWS V14.01,2013-03-17 13:34:00,
2013-03-17 09:36:00,64.4,36.2,30.12,North,356,0.0,0.0,35,-99.99,,CLR,-99.99,VWS V14.01,2013-03-17 13:36:00,
2013-03-17 09:37:00,64.4,36.2,30.12,North,356,0.0,0.0,35,-99.99,,CLR,-99.99,VWS V14.01,2013-03-17 13:37:00,
2013-03-17 09:39:00,64.4,36.2,30.12,North,356,0.0,0.0,35,-99.99,,CLR,-99.99,VWS V14.01,2013-03-17 13:39:00,
2013-03-17 09:40:00,64.4,36.2,30.12,North,356,0.0,0.0,35,-99.99,,CLR,-99.99,VWS V14.01,2013-03-17 13:40:00,
2013-03-17 09:42:00,64.4,36.2,30.12,North,356,0.0,0.0,35,-99.99,,CLR,-99.99,VWS V14.01,2013-03-17 13:42:00,
2013-03-17 09:46:00,64.8,36.5,30.12,North,356,0.0,4.5,35,-99.99,,CLR,-99.99,VWS V14.01,2013-03-17 13:46:00,
2013-03-17 09:47:00,64.9,36.7,30.12,North,356,0.0,4.0,35,-99.99,,CLR,-99.99,VWS V14.01,2013-03-17 13:47:00,
2013-03-17 09:51:00,65.1,36.8,30.12,North,356,0.0,2.7,35,-99.99,,CLR,-99.99,VWS V14.01,2013-03-17 13:51:00,
2013-03-17 09:52:00,65.3,37.0,30.12,North,356,0.0,0.0,35,-99.99,,CLR,-99.99,VWS V14.01,2013-03-17 13:52:00,
2013-03-17 09:53:00,65.3,36.2,30.12,North,356,0.0,0.0,34,-99.99,,CLR,-99.99,VWS V14.01,2013-03-17 13:53:00,
2013-03-17 09:56:00,65.7,36.6,30.12,North,356,3.1,3.1,34,-99.99,,CLR,-99.99,VWS V14.01,2013-03-17 13:56:00,
2013-03-17 09:58:00,65.7,36.6,30.12,North,356,0.0,3.1,34,-99.99,,CLR,-99.99,VWS V14.01,2013-03-17 13:58:00,
2013-03-17 10:02:00,65.8,36.7,30.12,North,356,4.0,4.9,34,-99.99,,CLR,-99.99,VWS V14.01,2013-03-17 14:02:00,
2013-03-17 10:03:00,66.0,36.9,30.12,North,356,0.0,4.9,34,-99.99,,CLR,-99.99,VWS V14.01,2013-03-17 14:03:00,
2013-03-17 10:08:00,66.4,37.2,30.15,North,356,0.0,0.0,34,-99.99,,CLR,-99.99,VWS V14.01,2013-03-17 14:08:00,
2013-03-17 10:09:00,66.4,37.2,30.15,North,356,2.7,2.7,34,-99.99,,CLR,-99.99,VWS V14.01,2013-03-17 14:09:00,
2013-03-17 10:10:00,66.6,38.1,30.15,North,356,3.6,4.0,35,-99.99,,CLR,-99.99,VWS V14.01,2013-03-17 14:10:00,
2013-03-17 10:14:00,66.6,38.1,30.15,North,356,0.0,4.9,35,-99.99,,CLR,-99.99,VWS V14.01,2013-03-17 14:14:00,
2013-03-17 10:15:00,66.7,38.2,30.15,North,356,0.0,0.0,35,-99.99,,CLR,-99.99,VWS V14.01,2013-03-17 14:15:00,
2013-03-17 10:18:00,66.7,38.2,30.15,North,356,2.7,5.4,35,-99.99,,CLR,-99.99,VWS V14.01,2013-03-17 14:18:00,
2013-03-17 10:19:00,66.7,38.2,30.15,North,356,2.7,3.6,35,-99.99,,CLR,-99.99,VWS V14.01,2013-03-17 14:19:00,
2013-03-17 10:20:00,66.9,38.4,30.12,North,356,0.0,4.5,35,-99.99,,CLR,-99.99,VWS V14.01,2013-03-17 14:20:00,
2013-03-17 10:23:00,67.1,37.8,30.12,North,356,3.6,3.6,34,-99.99,,CLR,-99.99,VWS V14.01,2013-03-17 14:23:00,
2013-03-17 10:25:00,67.3,38.0,30.12,North,356,3.1,4.5,34,-99.99,,CLR,-99.99,VWS V14.01,2013-03-17 14:25:00,
2013-03-17 10:27:00,67.6,38.3,30.12,North,356,0.0,0.0,34,-99.99,,CLR,-99.99,VWS V14.01,2013-03-17 14:27:00,
2013-03-17 10:29:00,68.0,38.6,30.12,North,356,3.1,3.1,34,-99.99,,CLR,-99.99,VWS V14.01,2013-03-17 14:29:00,
2013-03-17 10:30:00,68.4,38.9,30.12,North,356,0.0,3.1,34,-99.99,,CLR,-99.99,VWS V14.01,2013-03-17 14:30:00,
2013-03-17 10:31:00,68.5,39.1,30.12,North,356,0.0,3.1,34,-99.99,,CLR,-99.99,VWS V14.01,2013-03-17 14:31:00,
2013-03-17 10:33:00,69.1,38.0,30.12,North,356,5.4,5.4,32,-99.99,,CLR,-99.99,VWS V14.01,2013-03-17 14:33:00,
2013-03-17 10:34:00,69.1,38.0,30.12,North,356,0.0,4.0,32,-99.99,,CLR,-99.99,VWS V14.01,2013-03-17 14:34:00,
2013-03-17 10:36:00,69.1,38.0,30.12,North,356,4.9,4.9,32,-99.99,,CLR,-99.99,VWS V14.01,2013-03-17 14:36:00,
2013-03-17 10:37:00,69.1,38.0,30.12,North,356,0.0,4.9,32,-99.99,,CLR,-99.99,VWS V14.01,2013-03-17 14:37:00,
2013-03-17 10:39:00,69.1,37.2,30.12,North,356,0.0,3.6,31,-99.99,,CLR,-99.99,VWS V14.01,2013-03-17 14:39:00,
2013-03-17 10:40:00,69.1,37.2,30.12,North,356,4.0,4.0,31,-99.99,,CLR,-99.99,VWS V14.01,2013-03-17 14:40:00,
2013-03-17 10:42:00,69.3,37.4,30.12,North,356,3.6,4.0,31,-99.99,,CLR,-99.99,VWS V14.01,2013-03-17 14:42:00,
2013-03-17 10:46:00,69.1,37.2,30.12,North,356,5.8,6.3,31,-99.99,,CLR,-99.99,VWS V14.01,2013-03-17 14:46:00,
2013-03-17 10:47:00,69.1,36.4,30.12,North,356,4.0,5.8,30,-99.99,,CLR,-99.99,VWS V14.01,2013-03-17 14:47:00,
2013-03-17 10:48:00,69.3,37.4,30.12,North,356,4.0,4.0,31,-99.99,,CLR,-99.99,VWS V14.01,2013-03-17 14:48:00,
2013-03-17 10:52:00,69.8,37.8,30.15,North,356,2.7,4.5,31,-99.99,,CLR,-99.99,VWS V14.01,2013-03-17 14:52:00,
2013-03-17 10:53:00,70.2,37.3,30.15,North,356,3.1,3.1,30,-99.99,,CLR,-99.99,VWS V14.01,2013-03-17 14:53:00,
2013-03-17 10:54:00,70.2,37.3,30.15,North,356,5.8,5.8,30,-99.99,,CLR,-99.99,VWS V14.01,2013-03-17 14:54:00,
2013-03-17 10:57:00,70.9,37.1,30.15,North,356,0.0,4.9,29,-99.99,,CLR,-99.99,VWS V14.01,2013-03-17 14:57:00,
2013-03-17 10:58:00,71.2,36.5,30.15,North,356,0.0,0.0,28,-99.99,,CLR,-99.99,VWS V14.01,2013-03-17 14:58:00,
2013-03-17 10:59:00,71.2,36.5,30.15,North,356,3.6,3.6,28,-99.99,,CLR,-99.99,VWS V14.01,2013-03-17 14:59:00,
2013-03-17 11:00:00,71.4,36.7,30.15,North,356,4.0,4.5,28,-99.99,,CLR,-99.99,VWS V14.01,2013-03-17 15:00:00,
2013-03-17 11:02:00,71.8,37.0,30.15,North,356,4.5,4.5,28,-99.99,,CLR,-99.99,VWS V14.01,2013-03-17 15:02:00,
2013-03-17 11:03:00,72.0,37.1,30.15,North,356,4.0,4.0,28,-99.99,,CLR,-99.99,VWS V14.01,2013-03-17 15:03:00,
2013-03-17 11:04:00,72.0,37.1,30.15,North,356,3.1,4.0,28,-99.99,,CLR,-99.99,VWS V14.01,2013-03-17 15:04:00,
2013-03-17 11:07:00,72.3,36.5,30.12,North,356,4.0,5.4,27,-99.99,,CLR,-99.99,VWS V14.01,2013-03-17 15:07:00,
2013-03-17 11:08:00,72.1,36.3,30.12,North,356,3.1,4.9,27,-99.99,,CLR,-99.99,VWS V14.01,2013-03-17 15:08:00,
2013-03-17 11:09:00,72.1,36.3,30.12,North,356,0.0,3.6,27,-99.99,,CLR,-99.99,VWS V14.01,2013-03-17 15:09:00,
2013-03-17 11:10:00,72.1,36.3,30.12,North,356,3.6,3.6,27,-99.99,,CLR,-99.99,VWS V14.01,2013-03-17 15:10:00,
2013-03-17 11:12:00,72.7,36.8,30.12,North,356,0.0,0.0,27,-99.99,,CLR,-99.99,VWS V14.01,2013-03-17 15:12:00,
2013-03-17 11:14:00,73.0,36.2,30.12,North,356,0.0,0.0,26,-99.99,,CLR,-99.99,VWS V14.01,2013-03-17 15:14:00,
2013-03-17 11:16:00,73.2,36.3,30.12,North,356,0.0,0.0,26,-99.99,,CLR,-99.99,VWS V14.01,2013-03-17 15:16:00,
2013-03-17 11:17:00,73.4,36.5,30.12,North,356,0.0,0.0,26,-99.99,,CLR,-99.99,VWS V14.01,2013-03-17 15:17:00,
2013-03-17 11:19:00,73.6,35.6,30.12,North,356,0.0,4.5,25,-99.99,,CLR,-99.99,VWS V14.01,2013-03-17 15:19:00,
2013-03-17 11:22:00,73.6,35.6,30.12,North,356,3.6,5.8,25,-99.99,,CLR,-99.99,VWS V14.01,2013-03-17 15:22:00,
2013-03-17 11:23:00,73.6,35.6,30.12,North,356,0.0,5.8,25,-99.99,,CLR,-99.99,VWS V14.01,2013-03-17 15:23:00,
2013-03-17 11:24:00,73.4,35.5,30.12,North,356,5.4,5.8,25,-99.99,,CLR,-99.99,VWS V14.01,2013-03-17 15:24:00,
2013-03-17 11:28:00,73.2,35.3,30.12,North,356,6.3,6.3,25,-99.99,,CLR,-99.99,VWS V14.01,2013-03-17 15:28:00,
2013-03-17 11:29:00,73.0,35.2,30.12,North,356,0.0,4.5,25,-99.99,,CLR,-99.99,VWS V14.01,2013-03-17 15:29:00,
2013-03-17 11:30:00,73.0,35.2,30.12,North,356,0.0,0.0,25,-99.99,,CLR,-99.99,VWS V14.01,2013-03-17 15:30:00,
2013-03-17 11:34:00,73.2,35.3,30.12,North,356,0.0,4.0,25,-99.99,,CLR,-99.99,VWS V14.01,2013-03-17 15:34:00,
2013-03-17 11:35:00,73.2,36.3,30.12,North,356,0.0,0.0,26,-99.99,,CLR,-99.99,VWS V14.01,2013-03-17 15:35:00,
2013-03-17 11:39:00,74.3,37.2,30.15,North,356,3.6,4.9,26,-99.99,,CLR,-99.99,VWS V14.01,2013-03-17 15:39:00,
2013-03-17 11:40:00,74.5,36.4,30.15,North,356,3.6,4.5,25,-99.99,,CLR,-99.99,VWS V14.01,2013-03-17 15:40:00,
2013-03-17 11:44:00,74.7,35.5,30.15,North,356,5.8,7.8,24,-99.99,,CLR,-99.99,VWS V14.01,2013-03-17 15:44:00,
2013-03-17 11:45:00,74.5,35.4,30.15,North,356,0.0,5.4,24,-99.99,,CLR,-99.99,VWS V14.01,2013-03-17 15:45:00,
2013-03-17 11:46:00,74.3,35.2,30.15,North,356,4.0,4.0,24,-99.99,,CLR,-99.99,VWS V14.01,2013-03-17 15:46:00,
2013-03-17 11:50:00,74.1,36.1,30.15,North,356,3.1,4.5,25,-99.99,,CLR,-99.99,VWS V14.01,2013-03-17 15:50:00,
2013-03-17 11:52:00,74.3,36.2,30.15,North,356,3.1,3.1,25,-99.99,,CLR,-99.99,VWS V14.01,2013-03-17 15:52:00,
2013-03-17 11:54:00,74.7,36.5,30.15,North,356,3.1,4.9,25,-99.99,,CLR,-99.99,VWS V14.01,2013-03-17 15:54:00,
2013-03-17 11:55:00,74.8,36.7,30.15,North,356,5.8,6.3,25,-99.99,,CLR,-99.99,VWS V14.01,2013-03-17 15:55:00,
2013-03-17 11:56:00,74.8,36.7,30.15,North,356,5.4,6.3,25,-99.99,,CLR,-99.99,VWS V14.01,2013-03-17 15:56:00,
2013-03-17 11:57:00,74.8,35.7,30.15,North,356,5.4,5.4,24,-99.99,,CLR,-99.99,VWS V14.01,2013-03-17 15:57:00,
2013-03-17 11:59:00,74.3,35.2,30.15,North,356,4.5,5.8,24,-99.99,,CLR,-99.99,VWS V14.01,2013-03-17 15:59:00,
2013-03-17 12:00:00,74.1,35.1,30.15,North,356,4.0,5.8,24,-99.99,,CLR,-99.99,VWS V14.01,2013-03-17 16:00:00,
2013-03-17 12:03:00,74.1,36.1,30.15,North,356,6.3,6.9,25,-99.99,,CLR,-99.99,VWS V14.01,2013-03-17 16:03:00,
2013-03-17 12:04:00,74.3,36.2,30.15,North,356,6.7,6.7,25,-99.99,,CLR,-99.99,VWS V14.01,2013-03-17 16:04:00,
2013-03-17 12:05:00,74.3,36.2,30.12,North,356,6.3,6.3,25,-99.99,,CLR,-99.99,VWS V14.01,2013-03-17 16:05:00,
2013-03-17 12:09:00,73.9,35.9,30.12,North,356,0.0,0.0,25,-99.99,,CLR,-99.99,VWS V14.01,2013-03-17 16:09:00,
2013-03-17 12:10:00,74.1,36.1,30.12,North,356,0.0,0.0,25,-99.99,,CLR,-99.99,VWS V14.01,2013-03-17 16:10:00,
2013-03-17 12:12:00,74.3,35.2,30.12,North,356,6.3,6.3,24,-99.99,,CLR,-99.99,VWS V14.01,2013-03-17 16:12:00,
2013-03-17 12:14:00,74.3,36.2,30.12,North,356,5.8,5.8,25,-99.99,,CLR,-99.99,VWS V14.01,2013-03-17 16:14:00,
2013-03-17 12:15:00,74.3,35.2,30.12,North,356,5.4,5.8,24,-99.99,,CLR,-99.99,VWS V14.01,2013-03-17 16:15:00,
2013-03-17 12:16:00,74.3,35.2,30.12,North,356,4.0,8.3,24,-99.99,,CLR,-99.99,VWS V14.01,2013-03-17 16:16:00,
2013-03-17 12:18:00,74.1,36.1,30.12,North,356,4.5,5.4,25,-99.99,,CLR,-99.99,VWS V14.01,2013-03-17 16:18:00,
2013-03-17 12:20:00,74.1,36.1,30.12,North,356,4.0,6.3,25,-99.99,,CLR,-99.99,VWS V14.01,2013-03-17 16:20:00,
2013-03-17 12:21:00,74.3,36.2,30.12,North,356,4.0,4.0,25,-99.99,,CLR,-99.99,VWS V14.01,2013-03-17 16:21:00,
2013-03-17 12:23:00,74.7,36.5,30.12,North,356,4.5,5.8,25,-99.99,,CLR,-99.99,VWS V14.01,2013-03-17 16:23:00,
2013-03-17 12:25:00,75.0,35.8,30.12,North,356,4.0,5.8,24,-99.99,,CLR,-99.99,VWS V14.01,2013-03-17 16:25:00,
2013-03-17 12:26:00,75.2,36.0,30.12,North,356,0.0,4.9,24,-99.99,,CLR,-99.99,VWS V14.01,2013-03-17 16:26:00,
2013-03-17 12:29:00,75.4,36.1,30.12,North,356,5.4,5.4,24,-99.99,,CLR,-99.99,VWS V14.01,2013-03-17 16:29:00,
2013-03-17 12:30:00,75.4,35.0,30.12,North,356,3.1,5.4,23,-99.99,,CLR,-99.99,VWS V14.01,2013-03-17 16:30:00,
2013-03-17 12:33:00,75.6,36.3,30.12,North,356,0.0,2.7,24,-99.99,,CLR,-99.99,VWS V14.01,2013-03-17 16:33:00,
2013-03-17 12:34:00,75.9,36.6,30.12,North,356,0.0,4.5,24,-99.99,,CLR,-99.99,VWS V14.01,2013-03-17 16:34:00,
2013-03-17 12:35:00,76.1,35.7,30.12,North,356,4.5,4.9,23,-99.99,,CLR,-99.99,VWS V14.01,2013-03-17 16:35:00,
2013-03-17 12:38:00,76.1,35.7,30.12,North,356,6.3,6.3,23,-99.99,,CLR,-99.99,VWS V14.01,2013-03-17 16:38:00,
2013-03-17 12:39:00,76.3,35.8,30.12,North,356,5.8,7.4,23,-99.99,,CLR,-99.99,VWS V14.01,2013-03-17 16:39:00,
2013-03-17 12:41:00,76.5,36.0,30.12,North,356,4.5,5.4,23,-99.99,,CLR,-99.99,VWS V14.01,2013-03-17 16:41:00,
2013-03-17 12:43:00,76.6,36.1,30.12,North,356,4.0,5.4,23,-99.99,,CLR,-99.99,VWS V14.01,2013-03-17 16:43:00,
2013-03-17 12:44:00,76.8,36.2,30.12,North,356,6.7,7.8,23,-99.99,,CLR,-99.99,VWS V14.01,2013-03-17 16:44:00,
2013-03-17 12:45:00,76.8,36.2,30.12,North,356,4.5,7.8,23,-99.99,,CLR,-99.99,VWS V14.01,2013-03-17 16:45:00,
2013-03-17 12:46:00,77.0,36.4,30.12,North,356,0.0,6.3,23,-99.99,,CLR,-99.99,VWS V14.01,2013-03-17 16:46:00,
2013-03-17 12:49:00,77.0,36.4,30.12,North,356,4.0,4.9,23,-99.99,,CLR,-99.99,VWS V14.01,2013-03-17 16:49:00,
2013-03-17 12:50:00,77.0,36.4,30.12,North,356,3.6,4.9,23,-99.99,,CLR,-99.99,VWS V14.01,2013-03-17 16:50:00,
2013-03-17 12:51:00,77.0,36.4,30.12,North,356,4.9,6.3,23,-99.99,,CLR,-99.99,VWS V14.01,2013-03-17 16:51:00,
2013-03-17 12:52:00,77.0,36.4,30.12,North,356,4.9,6.3,23,-99.99,,CLR,-99.99,VWS V14.01,2013-03-17 16:52:00,
2013-03-17 12:54:00,77.2,36.5,30.12,North,356,4.0,4.9,23,-99.99,,CLR,-99.99,VWS V14.01,2013-03-17 16:54:00,
2013-03-17 12:55:00,77.0,36.4,30.12,North,356,6.9,6.9,23,-99.99,,CLR,-99.99,VWS V14.01,2013-03-17 16:55:00,
2013-03-17 12:57:00,76.6,36.1,30.12,North,356,3.6,4.5,23,-99.99,,CLR,-99.99,VWS V14.01,2013-03-17 16:57:00,
2013-03-17 13:00:00,76.6,36.1,30.12,North,356,0.0,4.9,23,-99.99,,CLR,-99.99,VWS V14.01,2013-03-17 17:00:00,
2013-03-17 13:01:00,76.8,36.2,30.12,North,356,2.7,3.6,23,-99.99,,CLR,-99.99,VWS V14.01,2013-03-17 17:01:00,
2013-03-17 13:03:00,77.2,36.5,30.12,North,356,2.7,7.8,23,-99.99,,CLR,-99.99,VWS V14.01,2013-03-17 17:03:00,
2013-03-17 13:04:00,77.2,36.5,30.12,North,356,4.9,6.3,23,-99.99,,CLR,-99.99,VWS V14.01,2013-03-17 17:04:00,
2013-03-17 13:05:00,77.4,36.7,30.12,North,356,4.5,7.8,23,-99.99,,CLR,-99.99,VWS V14.01,2013-03-17 17:05:00,
2013-03-17 13:06:00,77.4,36.7,30.12,North,356,3.6,6.3,23,-99.99,,CLR,-99.99,VWS V14.01,2013-03-17 17:06:00,
2013-03-17 13:08:00,77.2,36.5,30.12,North,356,7.4,7.4,23,-99.99,,CLR,-99.99,VWS V14.01,2013-03-17 17:08:00,
2013-03-17 13:09:00,77.0,36.4,30.12,North,356,6.3,7.4,23,-99.99,,CLR,-99.99,VWS V14.01,2013-03-17 17:09:00,
2013-03-17 13:10:00,77.0,36.4,30.12,North,356,5.8,7.4,23,-99.99,,CLR,-99.99,VWS V14.01,2013-03-17 17:10:00,
2013-03-17 13:12:00,76.8,36.2,30.12,North,356,4.5,5.8,23,-99.99,,CLR,-99.99,VWS V14.01,2013-03-17 17:12:00,
2013-03-17 13:13:00,76.6,36.1,30.12,North,356,3.6,3.6,23,-99.99,,CLR,-99.99,VWS V14.01,2013-03-17 17:13:00,
2013-03-17 13:14:00,76.6,36.1,30.12,North,356,4.5,6.3,23,-99.99,,CLR,-99.99,VWS V14.01,2013-03-17 17:14:00,
2013-03-17 13:15:00,76.5,36.0,30.12,North,356,4.0,4.0,23,-99.99,,CLR,-99.99,VWS V14.01,2013-03-17 17:15:00,
2013-03-17 13:17:00,76.3,35.8,30.12,North,356,3.6,4.0,23,-99.99,,CLR,-99.99,VWS V14.01,2013-03-17 17:17:00,
2013-03-17 13:19:00,76.3,35.8,30.12,North,356,5.8,7.8,23,-99.99,,CLR,-99.99,VWS V14.01,2013-03-17 17:19:00,
2013-03-17 13:20:00,76.3,35.8,30.12,North,356,4.9,8.3,23,-99.99,,CLR,-99.99,VWS V14.01,2013-03-17 17:20:00,
2013-03-17 13:21:00,76.3,35.8,30.12,North,356,0.0,4.0,23,-99.99,,CLR,-99.99,VWS V14.01,2013-03-17 17:21:00,
2013-03-17 13:23:00,76.6,36.1,30.12,North,356,5.4,7.4,23,-99.99,,CLR,-99.99,VWS V14.01,2013-03-17 17:23:00,
2013-03-17 13:25:00,76.3,36.9,30.12,North,356,2.7,6.3,24,-99.99,,CLR,-99.99,VWS V14.01,2013-03-17 17:25:00,
2013-03-17 13:26:00,76.5,37.0,30.12,North,356,10.1,10.1,24,-99.99,,CLR,-99.99,VWS V14.01,2013-03-17 17:26:00,
2013-03-17 13:27:00,76.3,36.9,30.12,North,356,7.4,10.1,24,-99.99,,CLR,-99.99,VWS V14.01,2013-03-17 17:27:00,
2013-03-17 13:29:00,75.9,36.6,30.12,North,356,6.7,8.7,24,-99.99,,CLR,-99.99,VWS V14.01,2013-03-17 17:29:00,
2013-03-17 13:32:00,75.7,37.5,30.12,North,356,3.6,4.5,25,-99.99,,CLR,-99.99,VWS V14.01,2013-03-17 17:32:00,
2013-03-17 13:33:00,75.7,37.5,30.12,North,356,6.3,6.3,25,-99.99,,CLR,-99.99,VWS V14.01,2013-03-17 17:33:00,
2013-03-17 13:35:00,75.9,38.6,30.12,North,356,4.5,5.4,26,-99.99,,CLR,-99.99,VWS V14.01,2013-03-17 17:35:00,
2013-03-17 13:37:00,75.9,39.6,30.12,North,356,3.6,7.4,27,-99.99,,CLR,-99.99,VWS V14.01,2013-03-17 17:37:00,
2013-03-17 13:38:00,75.9,38.6,30.12,North,356,7.4,7.8,26,-99.99,,CLR,-99.99,VWS V14.01,2013-03-17 17:38:00,
2013-03-17 13:42:00,75.6,39.3,30.12,North,356,4.9,6.7,27,-99.99,,CLR,-99.99,VWS V14.01,2013-03-17 17:42:00,
2013-03-17 13:43:00,75.4,40.0,30.12,North,356,3.1,5.4,28,-99.99,,CLR,-99.99,VWS V14.01,2013-03-17 17:43:00,
2013-03-17 13:44:00,75.4,41.0,30.12,North,356,9.6,9.6,29,-99.99,,CLR,-99.99,VWS V14.01,2013-03-17 17:44:00,
2013-03-17 13:47:00,74.1,40.7,30.12,North,356,5.4,8.3,30,-99.99,,CLR,-99.99,VWS V14.01,2013-03-17 17:47:00,
2013-03-17 13:48:00,73.9,41.4,30.12,North,356,5.8,9.2,31,-99.99,,CLR,-99.99,VWS V14.01,2013-03-17 17:48:00,
2013-03-17 13:49:00,73.9,41.4,30.12,North,356,6.7,8.3,31,-99.99,,CLR,-99.99,VWS V14.01,2013-03-17 17:49:00,
2013-03-17 13:53:00,73.2,41.6,30.12,North,356,4.9,5.8,32,-99.99,,CLR,-99.99,VWS V14.01,2013-03-17 17:53:00,
2013-03-17 13:54:00,73.4,41.8,30.12,North,356,6.9,6.9,32,-99.99,,CLR,-99.99,VWS V14.01,2013-03-17 17:54:00,
2013-03-17 13:55:00,73.6,41.9,30.12,North,356,2.7,6.9,32,-99.99,,CLR,-99.99,VWS V14.01,2013-03-17 17:55:00,
2013-03-17 13:59:00,73.8,42.1,30.12,North,356,3.6,3.6,32,-99.99,,CLR,-99.99,VWS V14.01,2013-03-17 17:59:00,
2013-03-17 14:00:00,74.1,42.4,30.12,North,356,4.9,8.3,32,-99.99,,CLR,-99.99,VWS V14.01,2013-03-17 18:00:00,
2013-03-17 14:04:00,74.1,42.4,30.12,North,356,4.5,5.4,32,-99.99,,CLR,-99.99,VWS V14.01,2013-03-17 18:04:00,
2013-03-17 14:05:00,74.1,42.4,30.12,North,356,7.8,9.2,32,-99.99,,CLR,-99.99,VWS V14.01,2013-03-17 18:05:00,
2013-03-17 14:06:00,73.9,42.2,30.12,North,356,11.0,11.0,32,-99.99,,CLR,-99.99,VWS V14.01,2013-03-17 18:06:00,
2013-03-17 14:09:00,73.9,42.2,30.12,North,356,7.8,10.1,32,-99.99,,CLR,-99.99,VWS V14.01,2013-03-17 18:09:00,
2013-03-17 14:10:00,73.9,43.0,30.12,North,356,11.0,11.2,33,-99.99,,CLR,-99.99,VWS V14.01,2013-03-17 18:10:00,
2013-03-17 14:11:00,73.8,42.1,30.12,North,356,11.2,11.2,32,-99.99,,CLR,-99.99,VWS V14.01,2013-03-17 18:11:00,
2013-03-17 14:13:00,73.6,41.9,30.12,North,356,5.4,6.7,32,-99.99,,CLR,-99.99,VWS V14.01,2013-03-17 18:13:00,
2013-03-17 14:14:00,73.4,41.8,30.12,North,356,7.4,8.3,32,-99.99,,CLR,-99.99,VWS V14.01,2013-03-17 18:14:00,
2013-03-17 14:15:00,73.4,42.6,30.12,North,356,6.7,7.4,33,-99.99,,CLR,-99.99,VWS V14.01,2013-03-17 18:15:00,
2013-03-17 14:16:00,73.4,42.6,30.12,North,356,6.3,7.8,33,-99.99,,CLR,-99.99,VWS V14.01,2013-03-17 18:16:00,
2013-03-17 14:18:00,73.6,42.7,30.12,North,356,4.0,7.8,33,-99.99,,CLR,-99.99,VWS V14.01,2013-03-17 18:18:00,
2013-03-17 14:19:00,73.8,42.9,30.12,North,356,7.4,7.4,33,-99.99,,CLR,-99.99,VWS V14.01,2013-03-17 18:19:00,
2013-03-17 14:20:00,73.6,42.7,30.12,North,356,5.4,11.2,33,-99.99,,CLR,-99.99,VWS V14.01,2013-03-17 18:20:00,
2013-03-17 14:23:00,73.2,42.4,30.12,North,356,11.0,11.0,33,-99.99,,CLR,-99.99,VWS V14.01,2013-03-17 18:23:00,
2013-03-17 14:25:00,73.2,42.4,30.12,North,356,7.4,8.3,33,-99.99,,CLR,-99.99,VWS V14.01,2013-03-17 18:25:00,
2013-03-17 14:26:00,73.0,42.3,30.12,North,356,5.8,7.4,33,-99.99,,CLR,-99.99,VWS V14.01,2013-03-17 18:26:00,
2013-03-17 14:28:00,72.7,42.0,30.12,North,356,5.4,8.3,33,-99.99,,CLR,-99.99,VWS V14.01,2013-03-17 18:28:00,
2013-03-17 14:30:00,72.1,42.2,30.12,North,356,8.3,8.3,34,-99.99,,CLR,-99.99,VWS V14.01,2013-03-17 18:30:00,
2013-03-17 14:33:00,71.8,42.7,30.12,North,356,7.8,8.7,35,-99.99,,CLR,-99.99,VWS V14.01,2013-03-17 18:33:00,
2013-03-17 14:34:00,71.6,42.5,30.12,North,356,10.1,11.0,35,-99.99,,CLR,-99.99,VWS V14.01,2013-03-17 18:34:00,
2013-03-17 14:36:00,71.6,43.3,30.09,North,356,4.0,7.4,36,-99.99,,CLR,-99.99,VWS V14.01,2013-03-17 18:36:00,
2013-03-17 14:38:00,71.8,44.1,30.09,North,356,3.1,9.2,37,-99.99,,CLR,-99.99,VWS V14.01,2013-03-17 18:38:00,
2013-03-17 14:39:00,71.8,44.1,30.09,North,356,9.6,10.1,37,-99.99,,CLR,-99.99,VWS V14.01,2013-03-17 18:39:00,
2013-03-17 14:41:00,71.8,44.8,30.09,North,356,6.3,7.8,38,-99.99,,CLR,-99.99,VWS V14.01,2013-03-17 18:41:00,
2013-03-17 14:43:00,71.2,45.7,30.09,North,356,12.1,12.1,40,-99.99,,CLR,-99.99,VWS V14.01,2013-03-17 18:43:00,
2013-03-17 14:45:00,71.1,44.9,30.09,North,356,6.3,11.0,39,-99.99,,CLR,-99.99,VWS V14.01,2013-03-17 18:45:00,
2013-03-17 14:46:00,70.5,45.1,30.09,North,356,10.5,12.5,40,-99.99,,CLR,-99.99,VWS V14.01,2013-03-17 18:46:00,
2013-03-17 14:48:00,70.5,45.7,30.09,North,356,6.9,6.9,41,-99.99,,CLR,-99.99,VWS V14.01,2013-03-17 18:48:00,
2013-03-17 14:50:00,70.3,45.5,30.09,North,356,4.5,10.1,41,-99.99,,CLR,-99.99,VWS V14.01,2013-03-17 18:50:00,
2013-03-17 14:51:00,70.3,44.9,30.09,North,356,7.8,8.3,40,-99.99,,CLR,-99.99,VWS V14.01,2013-03-17 18:51:00,
2013-03-17 14:53:00,70.2,44.7,30.09,North,356,9.2,11.0,40,-99.99,,CLR,-99.99,VWS V14.01,2013-03-17 18:53:00,
2013-03-17 14:54:00,69.8,44.4,30.09,North,356,4.5,12.5,40,-99.99,,CLR,-99.99,VWS V14.01,2013-03-17 18:54:00,
2013-03-17 14:57:00,69.6,45.5,30.09,North,356,6.3,6.9,42,-99.99,,CLR,-99.99,VWS V14.01,2013-03-17 18:57:00,
2013-03-17 14:58:00,69.4,44.7,30.09,North,356,8.7,10.1,41,-99.99,,CLR,-99.99,VWS V14.01,2013-03-17 18:58:00,
2013-03-17 15:00:00,69.3,45.2,30.09,North,356,6.3,6.3,42,-99.99,,CLR,-99.99,VWS V14.01,2013-03-17 19:00:00,
2013-03-17 15:03:00,69.4,45.4,30.09,North,356,4.9,7.4,42,-99.99,,CLR,-99.99,VWS V14.01,2013-03-17 19:03:00,
2013-03-17 15:07:00,69.3,45.2,30.09,North,356,3.6,9.2,42,-99.99,,CLR,-99.99,VWS V14.01,2013-03-17 19:07:00,
2013-03-17 15:08:00,69.3,45.2,30.09,North,356,4.5,4.5,42,-99.99,,CLR,-99.99,VWS V14.01,2013-03-17 19:08:00,
2013-03-17 15:09:00,69.3,45.2,30.09,North,356,4.9,7.4,42,-99.99,,CLR,-99.99,VWS V14.01,2013-03-17 19:09:00,
2013-03-17 15:10:00,69.3,45.2,30.09,North,356,4.9,6.7,42,-99.99,,CLR,-99.99,VWS V14.01,2013-03-17 19:10:00,
2013-03-17 15:13:00,68.9,44.9,30.09,North,356,4.5,7.8,42,-99.99,,CLR,-99.99,VWS V14.01,2013-03-17 19:13:00,
2013-03-17 15:15:00,68.4,44.4,30.09,North,356,7.8,7.8,42,-99.99,,CLR,-99.99,VWS V14.01,2013-03-17 19:15:00,
2013-03-17 15:18:00,67.6,44.4,30.09,North,356,8.7,11.2,43,-99.99,,CLR,-99.99,VWS V14.01,2013-03-17 19:18:00,
2013-03-17 15:19:00,67.6,44.4,30.09,North,356,7.8,9.2,43,-99.99,,CLR,-99.99,VWS V14.01,2013-03-17 19:19:00,
2013-03-17 15:22:00,66.9,44.3,30.09,North,356,8.3,10.1,44,-99.99,,CLR,-99.99,VWS V14.01,2013-03-17 19:22:00,
2013-03-17 15:23:00,66.7,44.8,30.09,North,356,6.9,7.8,45,-99.99,,CLR,-99.99,VWS V14.01,2013-03-17 19:23:00,
2013-03-17 15:24:00,66.7,44.8,30.09,North,356,6.3,10.5,45,-99.99,,CLR,-99.99,VWS V14.01,2013-03-17 19:24:00,
2013-03-17 15:25:00,66.7,44.8,30.09,North,356,11.0,11.0,45,-99.99,,CLR,-99.99,VWS V14.01,2013-03-17 19:25:00,
2013-03-17 15:27:00,66.0,44.7,30.09,North,356,3.6,11.2,46,-99.99,,CLR,-99.99,VWS V14.01,2013-03-17 19:27:00,
2013-03-17 15:29:00,65.8,44.5,30.09,North,356,8.7,11.6,46,-99.99,,CLR,-99.99,VWS V14.01,2013-03-17 19:29:00,
2013-03-17 15:30:00,65.5,44.7,30.09,North,356,4.0,5.8,47,-99.99,,CLR,-99.99,VWS V14.01,2013-03-17 19:30:00,
2013-03-17 15:34:00,64.6,45.0,30.09,North,356,4.0,4.9,49,-99.99,,CLR,-99.99,VWS V14.01,2013-03-17 19:34:00,
2013-03-17 15:35:00,64.4,44.8,30.09,North,356,9.6,9.6,49,-99.99,,CLR,-99.99,VWS V14.01,2013-03-17 19:35:00,
2013-03-17 15:36:00,64.4,44.8,30.09,North,356,5.4,6.3,49,-99.99,,CLR,-99.99,VWS V14.01,2013-03-17 19:36:00,
2013-03-17 15:40:00,63.9,45.4,30.09,North,356,6.7,6.7,51,-99.99,,CLR,-99.99,VWS V14.01,2013-03-17 19:40:00,
2013-03-17 15:41:00,63.7,45.2,30.09,North,356,4.0,11.6,51,-99.99,,CLR,-99.99,VWS V14.01,2013-03-17 19:41:00,
2013-03-17 15:42:00,63.7,45.8,30.09,North,356,5.8,7.4,52,-99.99,,CLR,-99.99,VWS V14.01,2013-03-17 19:42:00,
2013-03-17 15:43:00,63.5,45.1,30.09,North,356,10.1,11.0,51,-99.99,,CLR,-99.99,VWS V14.01,2013-03-17 19:43:00,
2013-03-17 15:47:00,63.5,46.1,30.09,North,356,7.4,11.0,53,-99.99,,CLR,-99.99,VWS V14.01,2013-03-17 19:47:00,
2013-03-17 15:48:00,63.5,46.1,30.09,North,356,9.6,10.1,53,-99.99,,CLR,-99.99,VWS V14.01,2013-03-17 19:48:00,
2013-03-17 15:52:00,63.1,45.8,30.09,North,356,6.7,10.1,53,-99.99,,CLR,-99.99,VWS V14.01,2013-03-17 19:52:00,
2013-03-17 15:53:00,63.1,45.8,30.09,North,356,7.4,10.1,53,-99.99,,CLR,-99.99,VWS V14.01,2013-03-17 19:53:00,
2013-03-17 15:54:00,63.3,45.9,30.09,North,356,3.1,6.7,53,-99.99,,CLR,-99.99,VWS V14.01,2013-03-17 19:54:00,
2013-03-17 15:57:00,63.3,45.9,30.09,North,356,4.0,6.3,53,-99.99,,CLR,-99.99,VWS V14.01,2013-03-17 19:57:00,
2013-03-17 15:58:00,63.3,45.4,30.09,North,356,9.6,11.0,52,-99.99,,CLR,-99.99,VWS V14.01,2013-03-17 19:58:00,
2013-03-17 15:59:00,63.3,45.4,30.09,North,356,6.9,9.6,52,-99.99,,CLR,-99.99,VWS V14.01,2013-03-17 19:59:00,
2013-03-17 16:01:00,63.3,45.4,30.09,North,356,5.8,9.6,52,-99.99,,CLR,-99.99,VWS V14.01,2013-03-17 20:01:00,
2013-03-17 16:03:00,63.3,45.4,30.09,North,356,5.8,6.9,52,-99.99,,CLR,-99.99,VWS V14.01,2013-03-17 20:03:00,
2013-03-17 16:04:00,63.5,45.1,30.09,North,356,4.9,10.5,51,-99.99,,CLR,-99.99,VWS V14.01,2013-03-17 20:04:00,
2013-03-17 16:07:00,63.5,45.1,30.09,North,356,6.7,7.8,51,-99.99,,CLR,-99.99,VWS V14.01,2013-03-17 20:07:00,
2013-03-17 16:08:00,63.5,45.1,30.09,North,356,6.7,9.6,51,-99.99,,CLR,-99.99,VWS V14.01,2013-03-17 20:08:00,
2013-03-17 16:09:00,63.5,45.1,30.09,North,356,6.7,8.7,51,-99.99,,CLR,-99.99,VWS V14.01,2013-03-17 20:09:00,
2013-03-17 16:13:00,63.0,44.0,30.09,North,356,4.9,4.9,50,-99.99,,CLR,-99.99,VWS V14.01,2013-03-17 20:13:00,
2013-03-17 16:14:00,63.0,44.0,30.09,North,356,6.9,6.9,50,-99.99,,CLR,-99.99,VWS V14.01,2013-03-17 20:14:00,
2013-03-17 16:18:00,63.5,45.1,30.09,North,356,4.5,6.7,51,-99.99,,CLR,-99.99,VWS V14.01,2013-03-17 20:18:00,
2013-03-17 16:19:00,63.7,44.7,30.09,North,356,4.5,6.7,50,-99.99,,CLR,-99.99,VWS V14.01,2013-03-17 20:19:00,
2013-03-17 16:24:00,63.7,43.6,30.09,North,356,7.4,8.7,48,-99.99,,CLR,-99.99,VWS V14.01,2013-03-17 20:24:00,
2013-03-17 16:25:00,63.5,43.5,30.09,North,356,4.0,4.9,48,-99.99,,CLR,-99.99,VWS V14.01,2013-03-17 20:25:00,
2013-03-17 16:26:00,63.5,43.5,30.09,North,356,0.0,4.9,48,-99.99,,CLR,-99.99,VWS V14.01,2013-03-17 20:26:00,
2013-03-17 16:29:00,63.3,43.8,30.09,North,356,4.5,5.8,49,-99.99,,CLR,-99.99,VWS V14.01,2013-03-17 20:29:00,
2013-03-17 16:30:00,63.1,43.2,30.09,North,356,4.9,6.9,48,-99.99,,CLR,-99.99,VWS V14.01,2013-03-17 20:30:00,
2013-03-17 16:31:00,63.0,43.5,30.09,North,356,6.7,9.2,49,-99.99,,CLR,-99.99,VWS V14.01,2013-03-17 20:31:00,
2013-03-17 16:32:00,63.0,43.5,30.09,North,356,5.4,9.2,49,-99.99,,CLR,-99.99,VWS V14.01,2013-03-17 20:32:00,
2013-03-17 16:35:00,62.8,43.4,30.09,North,356,9.2,9.2,49,-99.99,,CLR,-99.99,VWS V14.01,2013-03-17 20:35:00,
2013-03-17 16:36:00,62.6,43.2,30.09,North,356,4.0,7.4,49,-99.99,,CLR,-99.99,VWS V14.01,2013-03-17 20:36:00,
2013-03-17 16:37:00,62.6,43.2,30.09,North,356,3.6,7.4,49,-99.99,,CLR,-99.99,VWS V14.01,2013-03-17 20:37:00,
2013-03-17 16:41:00,62.6,43.2,30.09,North,356,6.7,6.9,49,-99.99,,CLR,-99.99,VWS V14.01,2013-03-17 20:41:00,
2013-03-17 16:42:00,62.6,43.2,30.09,North,356,4.0,8.7,49,-99.99,,CLR,-99.99,VWS V14.01,2013-03-17 20:42:00,
2013-03-17 16:43:00,62.6,43.2,30.09,North,356,7.4,9.6,49,-99.99,,CLR,-99.99,VWS V14.01,2013-03-17 20:43:00,
2013-03-17 16:46:00,62.4,43.0,30.09,North,356,3.1,5.4,49,-99.99,,CLR,-99.99,VWS V14.01,2013-03-17 20:46:00,
2013-03-17 16:48:00,62.4,43.0,30.09,North,356,5.8,6.7,49,-99.99,,CLR,-99.99,VWS V14.01,2013-03-17 20:48:00,
2013-03-17 16:49:00,62.4,43.0,30.09,North,356,5.8,6.9,49,-99.99,,FEW070,-99.99,VWS V14.01,2013-03-17 20:49:00,
2013-03-17 16:50:00,62.4,43.0,30.12,North,356,5.8,5.8,49,-99.99,,FEW070,-99.99,VWS V14.01,2013-03-17 20:50:00,
2013-03-17 16:52:00,62.4,43.0,30.12,North,356,3.6,9.6,49,-99.99,,FEW070,-99.99,VWS V14.01,2013-03-17 20:52:00,
2013-03-17 16:54:00,62.4,43.0,30.12,North,356,4.9,4.9,49,-99.99,,FEW070,-99.99,VWS V14.01,2013-03-17 20:54:00,
2013-03-17 16:55:00,62.6,43.2,30.12,North,356,4.9,4.9,49,-99.99,,FEW070,-99.99,VWS V14.01,2013-03-17 20:55:00,
2013-03-17 16:56:00,62.6,43.7,30.12,North,356,11.2,11.2,50,-99.99,,FEW070,-99.99,VWS V14.01,2013-03-17 20:56:00,
2013-03-17 16:57:00,62.8,43.4,30.12,North,356,6.7,6.7,49,-99.99,,FEW070,-99.99,VWS V14.01,2013-03-17 20:57:00,
2013-03-17 16:59:00,62.8,42.8,30.12,North,356,3.6,3.6,48,-99.99,,FEW070,-99.99,VWS V14.01,2013-03-17 20:59:00,
2013-03-17 17:01:00,63.0,43.5,30.12,North,356,7.4,7.4,49,-99.99,,FEW070,-99.99,VWS V14.01,2013-03-17 21:01:00,
2013-03-17 17:02:00,63.0,43.0,30.12,North,356,6.9,12.5,48,-99.99,,FEW070,-99.99,VWS V14.01,2013-03-17 21:02:00,
2013-03-17 17:03:00,63.0,43.0,30.12,North,356,4.0,5.4,48,-99.99,,FEW070,-99.99,VWS V14.01,2013-03-17 21:03:00,
2013-03-17 17:05:00,63.0,42.4,30.09,North,356,4.5,5.8,47,-99.99,,FEW070,-99.99,VWS V14.01,2013-03-17 21:05:00,
2013-03-17 17:07:00,62.8,42.3,30.09,North,356,0.0,6.7,47,-99.99,,FEW070,-99.99,VWS V14.01,2013-03-17 21:07:00,
2013-03-17 17:09:00,62.6,42.1,30.09,North,356,7.4,7.4,47,-99.99,,FEW070,-99.99,VWS V14.01,2013-03-17 21:09:00,
2013-03-17 17:11:00,62.6,42.1,30.09,North,356,3.6,7.8,47,-99.99,,FEW070,-99.99,VWS V14.01,2013-03-17 21:11:00,
2013-03-17 17:12:00,62.4,41.9,30.09,North,356,9.6,9.6,47,-99.99,,FEW070,-99.99,VWS V14.01,2013-03-17 21:12:00,
2013-03-17 17:13:00,62.2,41.8,30.09,North,356,6.7,9.6,47,-99.99,,FEW070,-99.99,VWS V14.01,2013-03-17 21:13:00,
2013-03-17 17:15:00,62.2,41.8,30.09,North,356,4.5,7.4,47,-99.99,,FEW070,-99.99,VWS V14.01,2013-03-17 21:15:00,
2013-03-17 17:18:00,62.4,42.5,30.09,North,356,5.8,5.8,48,-99.99,,FEW070,-99.99,VWS V14.01,2013-03-17 21:18:00,
2013-03-17 17:20:00,62.6,42.7,30.12,North,356,5.4,7.4,48,-99.99,,FEW070,-99.99,VWS V14.01,2013-03-17 21:20:00,
2013-03-17 17:23:00,62.6,42.1,30.12,North,356,9.2,11.6,47,-99.99,,FEW070,-99.99,VWS V14.01,2013-03-17 21:23:00,
2013-03-17 17:24:00,62.6,42.1,30.12,North,356,7.4,10.1,47,-99.99,,FEW070,-99.99,VWS V14.01,2013-03-17 21:24:00,
2013-03-17 17:25:00,62.4,41.9,30.12,North,356,7.8,11.0,47,-99.99,,FEW070,-99.99,VWS V14.01,2013-03-17 21:25:00,
2013-03-17 17:26:00,62.2,41.2,30.12,North,356,13.0,13.0,46,-99.99,,FEW070,-99.99,VWS V14.01,2013-03-17 21:26:00,
2013-03-17 17:28:00,61.9,41.5,30.12,North,356,9.2,11.6,47,-99.99,,FEW070,-99.99,VWS V14.01,2013-03-17 21:28:00,
2013-03-17 17:30:00,61.9,41.5,30.12,North,356,10.1,10.1,47,-99.99,,FEW070,-99.99,VWS V14.01,2013-03-17 21:30:00,
2013-03-17 17:32:00,61.9,41.5,30.12,North,356,6.3,11.2,47,-99.99,,FEW070,-99.99,VWS V14.01,2013-03-17 21:32:00,
2013-03-17 17:34:00,61.9,41.5,30.12,North,356,3.6,3.6,47,-99.99,,FEW070,-99.99,VWS V14.01,2013-03-17 21:34:00,
2013-03-17 17:35:00,61.9,41.5,30.12,North,356,8.3,8.3,47,-99.99,,FEW070,-99.99,VWS V14.01,2013-03-17 21:35:00,
2013-03-17 17:36:00,61.9,41.5,30.12,North,356,6.7,8.3,47,-99.99,,FEW070,-99.99,VWS V14.01,2013-03-17 21:36:00,
2013-03-17 17:38:00,61.9,41.5,30.12,North,356,5.4,8.3,47,-99.99,,FEW070,-99.99,VWS V14.01,2013-03-17 21:38:00,
2013-03-17 17:39:00,61.7,41.3,30.12,North,356,4.9,4.9,47,-99.99,,FEW085,-99.99,VWS V14.01,2013-03-17 21:39:00,
2013-03-17 17:40:00,61.7,41.8,30.12,North,356,7.8,7.8,48,-99.99,,FEW085,-99.99,VWS V14.01,2013-03-17 21:40:00,
2013-03-17 17:41:00,61.7,41.8,30.12,North,356,4.5,7.8,48,-99.99,,FEW085,-99.99,VWS V14.01,2013-03-17 21:41:00,
2013-03-17 17:43:00,61.7,41.8,30.12,North,356,3.1,5.4,48,-99.99,,FEW085,-99.99,VWS V14.01,2013-03-17 21:43:00,
2013-03-17 17:46:00,61.9,41.5,30.12,North,356,0.0,3.1,47,-99.99,,FEW085,-99.99,VWS V14.01,2013-03-17 21:46:00,
2013-03-17 17:47:00,61.9,41.5,30.12,North,356,7.8,7.8,47,-99.99,,FEW085,-99.99,VWS V14.01,2013-03-17 21:47:00,
2013-03-17 17:48:00,61.9,41.5,30.12,North,356,3.1,5.8,47,-99.99,,FEW085,-99.99,VWS V14.01,2013-03-17 21:48:00,
2013-03-17 17:49:00,61.9,41.5,30.12,North,356,4.9,5.8,47,-99.99,,FEW085,-99.99,VWS V14.01,2013-03-17 21:49:00,
2013-03-17 17:52:00,62.1,41.6,30.12,North,356,5.4,7.8,47,-99.99,,FEW085,-99.99,VWS V14.01,2013-03-17 21:52:00,
2013-03-17 17:53:00,62.1,41.6,30.12,North,356,6.7,8.7,47,-99.99,,FEW085,-99.99,VWS V14.01,2013-03-17 21:53:00,
2013-03-17 17:54:00,62.1,41.1,30.12,North,356,6.7,6.9,46,-99.99,,FEW085,-99.99,VWS V14.01,2013-03-17 21:54:00,
2013-03-17 17:55:00,62.1,41.1,30.12,North,356,4.0,6.9,46,-99.99,,FEW085,-99.99,VWS V14.01,2013-03-17 21:55:00,
2013-03-17 17:57:00,62.1,41.6,30.12,North,356,4.0,6.7,47,-99.99,,FEW085,-99.99,VWS V14.01,2013-03-17 21:57:00,
2013-03-17 17:59:00,61.9,41.5,30.12,North,356,6.9,8.7,47,-99.99,,FEW085,-99.99,VWS V14.01,2013-03-17 21:59:00,
2013-03-17 18:02:00,61.7,41.3,30.12,North,356,3.1,5.8,47,-99.99,,FEW085,-99.99,VWS V14.01,2013-03-17 22:02:00,
2013-03-17 18:04:00,61.5,41.1,30.12,North,356,6.7,6.9,47,-99.99,,FEW085,-99.99,VWS V14.01,2013-03-17 22:04:00,
2013-03-17 18:05:00,61.3,41.5,30.12,North,356,4.0,6.7,48,-99.99,,FEW085,-99.99,VWS V14.01,2013-03-17 22:05:00,
2013-03-17 18:07:00,61.3,41.5,30.12,North,356,0.0,8.3,48,-99.99,,FEW085,-99.99,VWS V14.01,2013-03-17 22:07:00,
2013-03-17 18:10:00,61.0,41.2,30.12,North,356,10.1,10.1,48,-99.99,,BKN100,-99.99,VWS V14.01,2013-03-17 22:10:00,
2013-03-17 18:11:00,61.0,41.2,30.12,North,356,7.4,10.1,48,-99.99,,BKN100,-99.99,VWS V14.01,2013-03-17 22:11:00,
2013-03-17 18:14:00,60.8,41.0,30.12,North,356,4.9,7.8,48,-99.99,,BKN100,-99.99,VWS V14.01,2013-03-17 22:14:00,
2013-03-17 18:15:00,60.8,41.0,30.12,North,356,3.1,5.8,48,-99.99,,BKN100,-99.99,VWS V14.01,2013-03-17 22:15:00,
2013-03-17 18:16:00,60.8,41.0,30.12,North,356,4.9,6.3,48,-99.99,,BKN100,-99.99,VWS V14.01,2013-03-17 22:16:00,
2013-03-17 18:18:00,60.6,40.8,30.12,North,356,3.6,6.3,48,-99.99,,BKN100,-99.99,VWS V14.01,2013-03-17 22:18:00,
2013-03-17 18:20:00,60.6,40.8,30.12,North,356,7.4,7.4,48,-99.99,,BKN100,-99.99,VWS V14.01,2013-03-17 22:20:00,
2013-03-17 18:21:00,60.6,40.8,30.12,North,356,5.4,5.4,48,-99.99,,BKN100,-99.99,VWS V14.01,2013-03-17 22:21:00,
2013-03-17 18:23:00,60.4,41.2,30.12,North,356,3.6,5.8,49,-99.99,,BKN100,-99.99,VWS V14.01,2013-03-17 22:23:00,
2013-03-17 18:25:00,60.3,41.0,30.12,North,356,4.0,8.3,49,-99.99,,BKN100,-99.99,VWS V14.01,2013-03-17 22:25:00,
2013-03-17 18:26:00,60.3,41.0,30.12,North,356,5.4,8.7,49,-99.99,,BKN100,-99.99,VWS V14.01,2013-03-17 22:26:00,
2013-03-17 18:28:00,60.1,40.3,30.12,North,356,5.8,6.7,48,-99.99,,BKN100,-99.99,VWS V14.01,2013-03-17 22:28:00,
2013-03-17 18:30:00,59.9,40.2,30.12,North,356,4.0,4.0,48,-99.99,,BKN100,-99.99,VWS V14.01,2013-03-17 22:30:00,
2013-03-17 18:31:00,59.7,40.0,30.12,North,356,8.3,10.1,48,-99.99,,BKN100,-99.99,VWS V14.01,2013-03-17 22:31:00,
2013-03-17 18:33:00,59.5,39.8,30.12,North,356,6.9,7.8,48,-99.99,,BKN100,-99.99,VWS V14.01,2013-03-17 22:33:00,
2013-03-17 18:34:00,59.4,39.7,30.12,North,356,4.9,11.0,48,-99.99,,BKN100,-99.99,VWS V14.01,2013-03-17 22:34:00,
2013-03-17 18:37:00,59.2,40.0,30.15,North,356,5.4,5.4,49,-99.99,,BKN100,-99.99,VWS V14.01,2013-03-17 22:37:00,
2013-03-17 18:38:00,59.2,40.0,30.15,North,356,3.1,6.3,49,-99.99,,BKN100,-99.99,VWS V14.01,2013-03-17 22:38:00,
2013-03-17 18:39:00,59.0,39.9,30.15,North,356,4.0,5.4,49,-99.99,,BKN100,-99.99,VWS V14.01,2013-03-17 22:39:00,
2013-03-17 18:42:00,58.6,39.5,30.15,North,356,10.5,10.5,49,-99.99,,BKN100,-99.99,VWS V14.01,2013-03-17 22:42:00,
2013-03-17 18:44:00,58.5,39.4,30.15,North,356,6.7,6.9,49,-99.99,,BKN100,-99.99,VWS V14.01,2013-03-17 22:44:00,
2013-03-17 18:45:00,58.3,39.2,30.15,North,356,12.1,12.1,49,-99.99,,BKN100,-99.99,VWS V14.01,2013-03-17 22:45:00,
2013-03-17 18:48:00,58.1,39.6,30.15,North,356,6.7,6.7,50,-99.99,,BKN100,-99.99,VWS V14.01,2013-03-17 22:48:00,
2013-03-17 18:50:00,57.9,39.4,30.15,North,356,10.5,10.5,50,-99.99,,BKN100,-99.99,VWS V14.01,2013-03-17 22:50:00,
2013-03-17 18:52:00,57.6,39.1,30.15,North,356,6.3,9.2,50,-99.99,,BKN100,-99.99,VWS V14.01,2013-03-17 22:52:00,
2013-03-17 18:53:00,57.4,38.9,30.15,North,356,5.8,12.1,50,-99.99,,BKN100,-99.99,VWS V14.01,2013-03-17 22:53:00,
2013-03-17 18:56:00,57.2,39.2,30.15,North,356,8.7,8.7,51,-99.99,,BKN100,-99.99,VWS V14.01,2013-03-17 22:56:00,
2013-03-17 18:58:00,57.0,39.1,30.15,North,356,4.0,8.3,51,-99.99,,BKN100,-99.99,VWS V14.01,2013-03-17 22:58:00,
2013-03-17 18:59:00,56.8,39.4,30.15,North,356,4.9,9.2,52,-99.99,,BKN100,-99.99,VWS V14.01,2013-03-17 22:59:00,
2013-03-17 19:01:00,56.8,39.4,30.15,North,356,8.3,8.3,52,-99.99,,BKN100,-99.99,VWS V14.01,2013-03-17 23:01:00,
2013-03-17 19:03:00,56.7,39.2,30.15,North,356,6.3,9.2,52,-99.99,,BKN100,-99.99,VWS V14.01,2013-03-17 23:03:00,
2013-03-17 19:05:00,56.5,39.1,30.15,North,356,2.7,8.3,52,-99.99,,BKN100,-99.99,VWS V14.01,2013-03-17 23:05:00,
2013-03-17 19:06:00,56.5,39.1,30.15,North,356,4.9,6.7,52,-99.99,,BKN100,-99.99,VWS V14.01,2013-03-17 23:06:00,
2013-03-17 19:07:00,56.5,39.1,30.15,North,356,4.0,6.7,52,-99.99,,BKN100,-99.99,VWS V14.01,2013-03-17 23:07:00,
2013-03-17 19:09:00,56.3,39.4,30.15,North,356,6.3,10.1,53,-99.99,,BKN100,-99.99,VWS V14.01,2013-03-17 23:09:00,
2013-03-17 19:10:00,56.3,39.4,30.15,North,356,6.9,9.2,53,-99.99,,BKN100,-99.99,VWS V14.01,2013-03-17 23:10:00,
2013-03-17 19:12:00,56.1,39.2,30.15,North,356,6.3,12.5,53,-99.99,,BKN100,-99.99,VWS V14.01,2013-03-17 23:12:00,
2013-03-17 19:14:00,55.9,39.5,30.15,North,356,5.8,6.9,54,-99.99,,FEW075,-99.99,VWS V14.01,2013-03-17 23:14:00,
2013-03-17 19:15:00,55.9,39.5,30.15,North,356,5.4,5.8,54,-99.99,,FEW075,-99.99,VWS V14.01,2013-03-17 23:15:00,
2013-03-17 19:18:00,55.8,39.4,30.15,North,356,6.3,7.4,54,-99.99,,FEW075,-99.99,VWS V14.01,2013-03-17 23:18:00,
2013-03-17 19:19:00,55.6,39.2,30.15,North,356,5.8,9.6,54,-99.99,,FEW075,-99.99,VWS V14.01,2013-03-17 23:19:00,
2013-03-17 19:21:00,55.6,39.2,30.18,North,356,4.0,4.9,54,-99.99,,FEW075,-99.99,VWS V14.01,2013-03-17 23:21:00,
2013-03-17 19:23:00,55.4,39.0,30.18,North,356,6.7,6.9,54,-99.99,,FEW075,-99.99,VWS V14.01,2013-03-17 23:23:00,
2013-03-17 19:25:00,55.2,39.3,30.18,North,356,3.1,6.7,55,-99.99,,FEW075,-99.99,VWS V14.01,2013-03-17 23:25:00,
2013-03-17 19:27:00,55.0,39.2,30.18,North,356,5.4,7.8,55,-99.99,,FEW075,-99.99,VWS V14.01,2013-03-17 23:27:00,
2013-03-17 19:29:00,54.9,39.0,30.18,North,356,6.3,6.3,55,-99.99,,FEW075,-99.99,VWS V14.01,2013-03-17 23:29:00,
2013-03-17 19:30:00,54.7,38.8,30.18,North,356,10.1,13.0,55,-99.99,,FEW075,-99.99,VWS V14.01,2013-03-17 23:30:00,
2013-03-17 19:32:00,54.5,38.7,30.18,North,356,6.9,10.1,55,-99.99,,FEW075,-99.99,VWS V14.01,2013-03-17 23:32:00,
2013-03-17 19:36:00,54.1,38.8,30.18,North,356,8.3,10.5,56,-99.99,,FEW075,-99.99,VWS V14.01,2013-03-17 23:36:00,
2013-03-17 19:37:00,54.0,38.6,30.18,North,356,5.8,11.0,56,-99.99,,FEW075,-99.99,VWS V14.01,2013-03-17 23:37:00,
2013-03-17 19:38:00,53.8,38.9,30.18,North,356,6.7,11.2,57,-99.99,,FEW075,-99.99,VWS V14.01,2013-03-17 23:38:00,
2013-03-17 19:39:00,53.8,38.9,30.18,North,356,4.0,7.4,57,-99.99,,FEW075,-99.99,VWS V14.01,2013-03-17 23:39:00,
2013-03-17 19:42:00,53.4,38.6,30.18,North,356,5.4,5.4,57,-99.99,,FEW075,-99.99,VWS V14.01,2013-03-17 23:42:00,
2013-03-17 19:43:00,53.4,38.6,30.18,North,356,5.4,9.6,57,-99.99,,FEW075,-99.99,VWS V14.01,2013-03-17 23:43:00,
2013-03-17 19:44:00,53.4,38.6,30.18,North,356,3.6,11.2,57,-99.99,,FEW075,-99.99,VWS V14.01,2013-03-17 23:44:00,
2013-03-17 19:48:00,53.2,38.9,30.18,North,356,5.8,5.8,58,-99.99,,FEW075,-99.99,VWS V14.01,2013-03-17 23:48:00,
2013-03-17 19:49:00,53.1,38.7,30.18,North,356,4.0,5.8,58,-99.99,,FEW075,-99.99,VWS V14.01,2013-03-17 23:49:00,
2013-03-17 19:50:00,53.1,38.7,30.18,North,356,3.6,6.9,58,-99.99,,FEW075,-99.99,VWS V14.01,2013-03-17 23:50:00,
2013-03-17 19:53:00,52.9,38.5,30.18,North,356,5.8,6.3,58,-99.99,,FEW075,-99.99,VWS V14.01,2013-03-17 23:53:00,
2013-03-17 19:54:00,52.7,38.8,30.18,North,356,6.9,6.9,59,-99.99,,FEW075,-99.99,VWS V14.01,2013-03-17 23:54:00,
2013-03-17 19:56:00,52.7,38.8,30.18,North,356,6.3,12.1,59,-99.99,,FEW075,-99.99,VWS V14.01,2013-03-17 23:56:00,
2013-03-17 19:58:00,52.5,38.6,30.18,North,356,4.0,11.6,59,-99.99,,FEW075,-99.99,VWS V14.01,2013-03-17 23:58:00,
2013-03-17 20:00:00,52.3,38.5,30.18,North,356,7.4,10.1,59,-99.99,,FEW075,-99.99,VWS V14.01,2013-03-18 00:00:00,
2013-03-17 20:03:00,52.2,38.7,30.18,North,356,11.0,13.9,60,-99.99,,FEW075,-99.99,VWS V14.01,2013-03-18 00:03:00,
2013-03-17 20:04:00,52.0,38.5,30.18,North,356,6.7,11.0,60,-99.99,,FEW075,-99.99,VWS V14.01,2013-03-18 00:04:00,
2013-03-17 20:05:00,52.0,38.5,30.18,North,356,6.3,6.3,60,-99.99,,FEW075,-99.99,VWS V14.01,2013-03-18 00:05:00,
2013-03-17 20:09:00,51.8,38.4,30.18,North,356,3.1,6.3,60,-99.99,,FEW075,-99.99,VWS V14.01,2013-03-18 00:09:00,
2013-03-17 20:10:00,51.8,38.8,30.18,North,356,4.9,8.7,61,-99.99,,FEW075,-99.99,VWS V14.01,2013-03-18 00:10:00,
2013-03-17 20:11:00,51.8,38.8,30.18,North,356,3.6,5.4,61,-99.99,,FEW075,-99.99,VWS V14.01,2013-03-18 00:11:00,
2013-03-17 20:14:00,51.6,38.6,30.18,North,356,6.9,7.8,61,-99.99,,FEW075,-99.99,VWS V14.01,2013-03-18 00:14:00,
2013-03-17 20:15:00,51.6,38.6,30.18,North,356,8.7,8.7,61,-99.99,,FEW080,-99.99,VWS V14.01,2013-03-18 00:15:00,
2013-03-17 20:17:00,51.4,38.5,30.18,North,356,8.3,13.9,61,-99.99,,FEW080,-99.99,VWS V14.01,2013-03-18 00:17:00,
2013-03-17 20:19:00,51.4,38.5,30.18,North,356,6.9,11.2,61,-99.99,,FEW080,-99.99,VWS V14.01,2013-03-18 00:19:00,
2013-03-17 20:21:00,51.3,38.3,30.21,North,356,9.2,9.6,61,-99.99,,FEW080,-99.99,VWS V14.01,2013-03-18 00:21:00,
2013-03-17 20:23:00,51.3,38.7,30.21,North,356,4.9,8.7,62,-99.99,,FEW080,-99.99,VWS V14.01,2013-03-18 00:23:00,
2013-03-17 20:24:00,51.3,38.7,30.21,North,356,4.9,5.8,62,-99.99,,FEW080,-99.99,VWS V14.01,2013-03-18 00:24:00,
2013-03-17 20:25:00,51.3,38.7,30.21,North,356,6.7,14.3,62,-99.99,,FEW080,-99.99,VWS V14.01,2013-03-18 00:25:00,
2013-03-17 20:28:00,51.1,38.5,30.21,North,356,3.6,6.7,62,-99.99,,FEW080,-99.99,VWS V14.01,2013-03-18 00:28:00,
2013-03-17 20:29:00,51.1,38.5,30.21,North,356,6.9,9.2,62,-99.99,,FEW080,-99.99,VWS V14.01,2013-03-18 00:29:00,
2013-03-17 20:30:00,51.1,38.5,30.21,North,356,10.5,10.5,62,-99.99,,FEW080,-99.99,VWS V14.01,2013-03-18 00:30:00,
2013-03-17 20:33:00,51.1,38.5,30.21,North,356,4.5,8.7,62,-99.99,,FEW080,-99.99,VWS V14.01,2013-03-18 00:33:00,
2013-03-17 20:34:00,51.1,38.5,30.21,North,356,11.6,11.6,62,-99.99,,FEW080,-99.99,VWS V14.01,2013-03-18 00:34:00,
2013-03-17 20:35:00,51.1,38.5,30.21,North,356,13.0,15.9,62,-99.99,,FEW080,-99.99,VWS V14.01,2013-03-18 00:35:00,
2013-03-17 20:38:00,51.1,38.5,30.21,North,356,5.4,10.1,62,-99.99,,FEW080,-99.99,VWS V14.01,2013-03-18 00:38:00,
2013-03-17 20:39:00,51.1,38.1,30.21,North,356,4.9,6.9,61,-99.99,,FEW080,-99.99,VWS V14.01,2013-03-18 00:39:00,
2013-03-17 20:40:00,51.1,38.1,30.21,North,356,6.3,6.9,61,-99.99,,FEW080,-99.99,VWS V14.01,2013-03-18 00:40:00,
2013-03-17 20:43:00,51.1,38.1,30.21,North,356,7.4,7.4,61,-99.99,,FEW080,-99.99,VWS V14.01,2013-03-18 00:43:00,
2013-03-17 20:45:00,51.1,38.1,30.21,North,356,7.8,7.8,61,-99.99,,FEW080,-99.99,VWS V14.01,2013-03-18 00:45:00,
2013-03-17 20:48:00,51.1,38.5,30.21,North,356,7.8,9.6,62,-99.99,,FEW080,-99.99,VWS V14.01,2013-03-18 00:48:00,
2013-03-17 20:51:00,51.1,38.5,30.21,North,356,2.7,5.4,62,-99.99,,FEW080,-99.99,VWS V14.01,2013-03-18 00:51:00,
2013-03-17 20:53:00,51.1,38.5,30.21,North,356,3.1,5.8,62,-99.99,,FEW080,-99.99,VWS V14.01,2013-03-18 00:53:00,
2013-03-17 20:56:00,51.1,38.5,30.21,North,356,5.8,7.4,62,-99.99,,FEW080,-99.99,VWS V14.01,2013-03-18 00:56:00,
2013-03-17 20:57:00,51.1,38.1,30.21,North,356,5.8,6.3,61,-99.99,,FEW080,-99.99,VWS V14.01,2013-03-18 00:57:00,
2013-03-17 20:58:00,51.1,38.1,30.21,North,356,6.3,6.3,61,-99.99,,FEW080,-99.99,VWS V14.01,2013-03-18 00:58:00,
2013-03-17 21:02:00,50.9,38.4,30.21,North,356,10.1,10.1,62,-99.99,,FEW080,-99.99,VWS V14.01,2013-03-18 01:02:00,
2013-03-17 21:03:00,50.7,37.8,30.21,North,356,6.7,9.2,61,-99.99,,FEW080,-99.99,VWS V14.01,2013-03-18 01:03:00,
2013-03-17 21:07:00,50.7,38.2,30.24,North,356,5.8,6.3,62,-99.99,,FEW080,-99.99,VWS V14.01,2013-03-18 01:07:00,
2013-03-17 21:08:00,50.7,38.2,30.24,North,356,4.0,4.5,62,-99.99,,FEW080,-99.99,VWS V14.01,2013-03-18 01:08:00,
2013-03-17 21:09:00,50.7,38.2,30.24,North,356,7.4,9.2,62,-99.99,,FEW080,-99.99,VWS V14.01,2013-03-18 01:09:00,
2013-03-17 21:12:00,50.7,38.2,30.24,North,356,0.0,0.0,62,-99.99,,FEW080,-99.99,VWS V14.01,2013-03-18 01:12:00,
2013-03-17 21:13:00,50.7,38.2,30.24,North,356,3.6,4.9,62,-99.99,,FEW080,-99.99,VWS V14.01,2013-03-18 01:13:00,
2013-03-17 21:14:00,50.7,38.2,30.24,North,356,9.2,11.2,62,-99.99,,FEW080,-99.99,VWS V14.01,2013-03-18 01:14:00,
2013-03-17 21:18:00,50.5,38.0,30.24,North,356,6.3,7.8,62,-99.99,,FEW080,-99.99,VWS V14.01,2013-03-18 01:18:00,
2013-03-17 21:19:00,50.5,38.0,30.24,North,356,4.5,7.8,62,-99.99,,FEW080,-99.99,VWS V14.01,2013-03-18 01:19:00,
2013-03-17 21:20:00,50.5,38.0,30.24,North,356,5.4,5.4,62,-99.99,,FEW080,-99.99,VWS V14.01,2013-03-18 01:20:00,
2013-03-17 21:23:00,50.4,37.8,30.24,North,356,6.3,7.8,62,-99.99,,FEW080,-99.99,VWS V14.01,2013-03-18 01:23:00,
2013-03-17 21:25:00,50.4,37.8,30.24,North,356,6.7,11.6,62,-99.99,,FEW080,-99.99,VWS V14.01,2013-03-18 01:25:00,
2013-03-17 21:28:00,50.4,37.8,30.24,North,356,2.7,6.9,62,-99.99,,FEW080,-99.99,VWS V14.01,2013-03-18 01:28:00,
2013-03-17 21:30:00,50.4,37.8,30.24,North,356,5.4,9.2,62,-99.99,,FEW080,-99.99,VWS V14.01,2013-03-18 01:30:00,
2013-03-17 21:31:00,50.4,37.8,30.24,North,356,3.6,4.0,62,-99.99,,FEW080,-99.99,VWS V14.01,2013-03-18 01:31:00,
2013-03-17 21:33:00,50.4,37.8,30.24,North,356,3.1,4.5,62,-99.99,,FEW080,-99.99,VWS V14.01,2013-03-18 01:33:00,
2013-03-17 21:36:00,50.4,37.8,30.24,North,356,6.3,9.2,62,-99.99,,FEW080,-99.99,VWS V14.01,2013-03-18 01:36:00,
2013-03-17 21:37:00,50.4,37.4,30.24,North,356,6.3,8.7,61,-99.99,,FEW080,-99.99,VWS V14.01,2013-03-18 01:37:00,
2013-03-17 21:39:00,50.4,37.4,30.24,North,356,8.3,8.3,61,-99.99,,BKN070,-99.99,VWS V14.01,2013-03-18 01:39:00,
2013-03-17 21:41:00,50.4,37.4,30.24,North,356,3.1,4.5,61,-99.99,,BKN070,-99.99,VWS V14.01,2013-03-18 01:41:00,
2013-03-17 21:44:00,50.4,37.8,30.24,North,356,3.6,6.7,62,-99.99,,BKN070,-99.99,VWS V14.01,2013-03-18 01:44:00,
2013-03-17 21:48:00,50.4,37.4,30.24,North,356,6.7,10.5,61,-99.99,,BKN070,-99.99,VWS V14.01,2013-03-18 01:48:00,
2013-03-17 21:49:00,50.4,37.4,30.24,North,356,3.1,3.1,61,-99.99,,BKN070,-99.99,VWS V14.01,2013-03-18 01:49:00,
2013-03-17 21:50:00,50.4,37.4,30.24,North,356,0.0,4.5,61,-99.99,,BKN070,-99.99,VWS V14.01,2013-03-18 01:50:00,
2013-03-17 21:53:00,50.4,37.4,30.24,North,356,7.8,7.8,61,-99.99,,BKN070,-99.99,VWS V14.01,2013-03-18 01:53:00,
2013-03-17 21:55:00,50.4,37.4,30.24,North,356,4.0,7.4,61,-99.99,,BKN070,-99.99,VWS V14.01,2013-03-18 01:55:00,
2013-03-17 21:59:00,50.4,37.4,30.24,North,356,6.7,6.7,61,-99.99,,BKN070,-99.99,VWS V14.01,2013-03-18 01:59:00,
2013-03-17 22:00:00,50.4,37.4,30.24,North,356,4.9,4.9,61,-99.99,,BKN070,-99.99,VWS V14.01,2013-03-18 02:00:00,
2013-03-17 22:01:00,50.4,37.4,30.24,North,356,6.3,6.3,61,-99.99,,BKN070,-99.99,VWS V14.01,2013-03-18 02:01:00,
2013-03-17 22:04:00,50.4,37.4,30.24,North,356,4.9,9.6,61,-99.99,,BKN070,-99.99,VWS V14.01,2013-03-18 02:04:00,
2013-03-17 22:06:00,50.4,37.4,30.24,North,356,3.6,5.8,61,-99.99,,BKN070,-99.99,VWS V14.01,2013-03-18 02:06:00,
2013-03-17 22:07:00,50.4,37.4,30.24,North,356,7.4,7.4,61,-99.99,,BKN070,-99.99,VWS V14.01,2013-03-18 02:07:00,
2013-03-17 22:09:00,50.4,37.4,30.24,North,356,3.6,4.5,61,-99.99,,BKN070,-99.99,VWS V14.01,2013-03-18 02:09:00,
2013-03-17 22:10:00,50.4,37.4,30.24,North,356,3.6,7.8,61,-99.99,,BKN070,-99.99,VWS V14.01,2013-03-18 02:10:00,
2013-03-17 22:12:00,50.4,37.4,30.24,North,356,8.3,8.3,61,-99.99,,BKN070,-99.99,VWS V14.01,2013-03-18 02:12:00,
2013-03-17 22:13:00,50.4,37.4,30.24,North,356,6.3,8.3,61,-99.99,,BKN070,-99.99,VWS V14.01,2013-03-18 02:13:00,
2013-03-17 22:15:00,50.2,37.3,30.24,North,356,5.4,5.4,61,-99.99,,BKN070,-99.99,VWS V14.01,2013-03-18 02:15:00,
2013-03-17 22:18:00,50.2,36.8,30.24,North,356,6.9,6.9,60,-99.99,,BKN070,-99.99,VWS V14.01,2013-03-18 02:18:00,
2013-03-17 22:19:00,50.2,37.3,30.24,North,356,6.3,8.3,61,-99.99,,BKN070,-99.99,VWS V14.01,2013-03-18 02:19:00,
2013-03-17 22:20:00,50.2,36.8,30.27,North,356,5.4,8.7,60,-99.99,,BKN070,-99.99,VWS V14.01,2013-03-18 02:20:00,
2013-03-17 22:22:00,50.2,37.3,30.27,North,356,5.8,5.8,61,-99.99,,BKN070,-99.99,VWS V14.01,2013-03-18 02:22:00,
2013-03-17 22:24:00,50.2,37.3,30.27,North,356,4.5,8.7,61,-99.99,,BKN070,-99.99,VWS V14.01,2013-03-18 02:24:00,
2013-03-17 22:25:00,50.2,37.3,30.27,North,356,4.5,8.3,61,-99.99,,BKN070,-99.99,VWS V14.01,2013-03-18 02:25:00,
2013-03-17 22:27:00,50.2,37.3,30.27,North,356,8.3,8.3,61,-99.99,,BKN070,-99.99,VWS V14.01,2013-03-18 02:27:00,
2013-03-17 22:29:00,50.2,37.3,30.27,North,356,4.0,8.7,61,-99.99,,BKN070,-99.99,VWS V14.01,2013-03-18 02:29:00,
2013-03-17 22:30:00,50.2,37.3,30.27,North,356,6.9,7.4,61,-99.99,,BKN070,-99.99,VWS V14.01,2013-03-18 02:30:00,
2013-03-17 22:33:00,50.2,37.3,30.27,North,356,5.4,5.4,61,-99.99,,BKN070,-99.99,VWS V14.01,2013-03-18 02:33:00,
2013-03-17 22:34:00,50.2,37.3,30.27,North,356,3.6,3.6,61,-99.99,,BKN070,-99.99,VWS V14.01,2013-03-18 02:34:00,
2013-03-17 22:35:00,50.2,37.3,30.27,North,356,4.0,4.5,61,-99.99,,BKN070,-99.99,VWS V14.01,2013-03-18 02:35:00,
2013-03-17 22:38:00,50.2,37.3,30.27,North,356,3.6,3.6,61,-99.99,,BKN070,-99.99,VWS V14.01,2013-03-18 02:38:00,
2013-03-17 22:40:00,50.2,37.3,30.27,North,356,6.7,6.7,61,-99.99,,BKN070,-99.99,VWS V14.01,2013-03-18 02:40:00,
2013-03-17 22:42:00,50.2,37.3,30.27,North,356,0.0,4.0,61,-99.99,,BKN070,-99.99,VWS V14.01,2013-03-18 02:42:00,
2013-03-17 22:44:00,50.2,37.3,30.27,North,356,5.8,6.7,61,-99.99,,BKN070,-99.99,VWS V14.01,2013-03-18 02:44:00,
2013-03-17 22:45:00,50.2,37.3,30.27,North,356,5.4,5.4,61,-99.99,,BKN070,-99.99,VWS V14.01,2013-03-18 02:45:00,
2013-03-17 22:47:00,50.2,37.3,30.27,North,356,7.4,7.4,61,-99.99,,BKN070,-99.99,VWS V14.01,2013-03-18 02:47:00,
2013-03-17 22:49:00,50.2,37.3,30.27,North,356,6.3,6.3,61,-99.99,,BKN070,-99.99,VWS V14.01,2013-03-18 02:49:00,
2013-03-17 22:50:00,50.2,37.3,30.27,North,356,3.6,6.3,61,-99.99,,BKN070,-99.99,VWS V14.01,2013-03-18 02:50:00,
2013-03-17 22:52:00,50.2,37.3,30.27,North,356,4.5,8.7,61,-99.99,,BKN070,-99.99,VWS V14.01,2013-03-18 02:52:00,
2013-03-17 22:55:00,50.2,37.3,30.27,North,356,4.0,6.3,61,-99.99,,BKN070,-99.99,VWS V14.01,2013-03-18 02:55:00,
2013-03-17 22:57:00,50.2,37.3,30.27,North,356,4.9,8.3,61,-99.99,,BKN070,-99.99,VWS V14.01,2013-03-18 02:57:00,
2013-03-17 23:01:00,50.2,37.3,30.27,North,356,8.3,8.3,61,-99.99,,BKN070,-99.99,VWS V14.01,2013-03-18 03:01:00,
2013-03-17 23:02:00,50.2,37.3,30.27,North,356,4.9,4.9,61,-99.99,,BKN070,-99.99,VWS V14.01,2013-03-18 03:02:00,
2013-03-17 23:03:00,50.2,37.3,30.27,North,356,6.7,8.3,61,-99.99,,BKN070,-99.99,VWS V14.01,2013-03-18 03:03:00,
2013-03-17 23:06:00,50.2,37.7,30.27,North,356,6.3,7.8,62,-99.99,,BKN070,-99.99,VWS V14.01,2013-03-18 03:06:00,
2013-03-17 23:07:00,50.2,37.7,30.27,North,356,7.8,8.3,62,-99.99,,BKN070,-99.99,VWS V14.01,2013-03-18 03:07:00,
2013-03-17 23:08:00,50.2,37.7,30.27,North,356,4.5,5.8,62,-99.99,,BKN070,-99.99,VWS V14.01,2013-03-18 03:08:00,
2013-03-17 23:10:00,50.2,37.3,30.27,North,356,6.7,6.9,61,-99.99,,BKN070,-99.99,VWS V14.01,2013-03-18 03:10:00,
2013-03-17 23:11:00,50.2,37.7,30.27,North,356,7.4,7.8,62,-99.99,,BKN070,-99.99,VWS V14.01,2013-03-18 03:11:00,
2013-03-17 23:12:00,50.0,37.5,30.27,North,356,5.8,6.3,62,-99.99,,BKN070,-99.99,VWS V14.01,2013-03-18 03:12:00,
2013-03-17 23:14:00,50.0,37.5,30.27,North,356,5.4,5.4,62,-99.99,,BKN070,-99.99,VWS V14.01,2013-03-18 03:14:00,
2013-03-17 23:15:00,50.0,37.5,30.27,North,356,6.7,6.7,62,-99.99,,BKN070,-99.99,VWS V14.01,2013-03-18 03:15:00,
2013-03-17 23:16:00,50.0,37.5,30.27,North,356,5.4,6.3,62,-99.99,,BKN070,-99.99,VWS V14.01,2013-03-18 03:16:00,
2013-03-17 23:17:00,50.0,37.5,30.27,North,356,5.8,9.6,62,-99.99,,BKN070,-99.99,VWS V14.01,2013-03-18 03:17:00,
2013-03-17 23:19:00,50.0,37.5,30.27,North,356,4.5,4.9,62,-99.99,,BKN070,-99.99,VWS V14.01,2013-03-18 03:19:00,
2013-03-17 23:22:00,50.0,37.5,30.27,North,356,7.4,7.4,62,-99.99,,BKN070,-99.99,VWS V14.01,2013-03-18 03:22:00,
2013-03-17 23:24:00,50.0,37.5,30.27,North,356,5.8,8.7,62,-99.99,,BKN070,-99.99,VWS V14.01,2013-03-18 03:24:00,
2013-03-17 23:25:00,49.8,37.3,30.27,North,356,4.5,6.7,62,-99.99,,BKN070,-99.99,VWS V14.01,2013-03-18 03:25:00,
2013-03-17 23:27:00,49.8,37.3,30.27,North,356,0.0,4.5,62,-99.99,,BKN070,-99.99,VWS V14.01,2013-03-18 03:27:00,
2013-03-17 23:28:00,49.8,37.3,30.27,North,356,0.0,0.0,62,-99.99,,BKN070,-99.99,VWS V14.01,2013-03-18 03:28:00,
2013-03-17 23:29:00,49.8,37.3,30.27,North,356,4.5,4.9,62,-99.99,,BKN070,-99.99,VWS V14.01,2013-03-18 03:29:00,
2013-03-17 23:32:00,49.8,37.3,30.27,North,356,0.0,3.1,62,-99.99,,BKN070,-99.99,VWS V14.01,2013-03-18 03:32:00,
2013-03-17 23:33:00,49.8,37.3,30.27,North,356,0.0,4.0,62,-99.99,,BKN070,-99.99,VWS V14.01,2013-03-18 03:33:00,
2013-03-17 23:35:00,49.8,37.3,30.27,North,356,2.7,3.6,62,-99.99,,BKN070,-99.99,VWS V14.01,2013-03-18 03:35:00,
2013-03-17 23:37:00,49.8,37.3,30.27,North,356,5.4,5.4,62,-99.99,,BKN070,-99.99,VWS V14.01,2013-03-18 03:37:00,
2013-03-17 23:39:00,49.8,37.3,30.27,North,356,6.3,6.3,62,-99.99,,BKN070,-99.99,VWS V14.01,2013-03-18 03:39:00,
2013-03-17 23:40:00,49.6,37.2,30.27,North,356,4.5,10.5,62,-99.99,,BKN070,-99.99,VWS V14.01,2013-03-18 03:40:00,
2013-03-17 23:42:00,49.6,37.2,30.27,North,356,3.6,5.4,62,-99.99,,BKN070,-99.99,VWS V14.01,2013-03-18 03:42:00,
2013-03-17 23:45:00,49.5,37.4,30.27,North,356,3.6,6.7,63,-99.99,,BKN070,-99.99,VWS V14.01,2013-03-18 03:45:00,
2013-03-17 23:48:00,49.3,37.2,30.27,North,356,5.4,8.3,63,-99.99,,OVC023,-99.99,VWS V14.01,2013-03-18 03:48:00,
2013-03-17 23:51:00,49.1,37.1,30.27,North,356,0.0,8.3,63,-99.99,,OVC023,-99.99,VWS V14.01,2013-03-18 03:51:00,
2013-03-17 23:52:00,49.1,37.5,30.27,North,356,4.5,5.8,64,-99.99,,OVC023,-99.99,VWS V14.01,2013-03-18 03:52:00,
2013-03-17 23:54:00,48.9,37.3,30.27,North,356,0.0,3.6,64,-99.99,,OVC023,-99.99,VWS V14.01,2013-03-18 03:54:00,
2013-03-17 23:57:00,48.7,37.5,30.27,North,356,3.6,4.9,65,-99.99,,OVC023,-99.99,VWS V14.01,2013-03-18 03:57:00,
2013-03-17 23:58:00,48.7,37.5,30.27,North,356,4.9,4.9,65,-99.99,,OVC023,-99.99,VWS V14.01,2013-03-18 03:58:00,
2013-03-17 23:59:00,48.7,37.5,30.27,North,356,4.0,6.7,65,-99.99,,OVC023,-99.99,VWS V14.01,2013-03-18 03:59:00,